                ,  0.671,  0.769,  0.868,  0.966,  1.065,  1.163,  1.262,  1.361,  1.459,  1.558,  1.656,  1.755,  1.853,  1.952,  2.050,  2.149,  2.247,  2.346,  2.445,  2.543,  2.642,  2.740,  2.839,  2.937,  3.036,  3.134,  3.233,  3.331,  3.430,  3.528,  3.627,  3.726,  3.824,  3.923,  4.021,  4.120,  4.218,  4.317,  4.415,  4.514,  4.612,  4.711,  4.809,  4.908,  5.007,  5.105,  5.204,  5.302,  5.401,  5.499,  5.598,  5.696,  5.795,  5.893,  5.992,  6.091,  6.189,  6.288,  6.386,  6.485,  6.583,  6.682,  6.780,  6.879,  6.977,  7.076,  7.174,  7.273,  7.372,  7.470
2004/07/31 00:00,   -0.4,    0.1,    0.6,    0.7,    0.9,    2.0,    5.7,    2.5,    6.5,    9.8,  999.0,    9.8,    9.7,   11.6,   10.8,   11.2,   11.7,   11.6,   12.6,   14.4,   14.5,  999.0,  999.0,    9.7,   14.7,   13.7,   12.0,   11.2,   11.0,   11.4,   11.2,   10.7,   11.3,   13.2,  999.0,   11.2,   12.8,   14.0,   13.4,  999.0,  999.0,  999.0,  999.0,  999.0,  999.0,  999.0,  999.0,  999.0,  999.0,  999.0,  999.0,  999.0,  999.0,  999.0,  999.0,  999.0,  999.0,  999.0,  999.0,  999.0,  999.0,  999.0,  999.0,  999.0,  999.0,  999.0,  999.0,  999.0,    2.3,  999.0
2004/07/31 00:10,   -0.1,   -0.1,   -0.1,    0.5,    0.2,    1.9,    5.0,    6.0,    5.8,    8.0,    8.8,    8.8,    9.1,   10.7,   10.3,   11.3,   11.3,   11.8,   12.7,   14.3,   14.1,   13.9,   12.5,   11.4,   12.4,   12.1,   11.8,   11.8,   12.8,   14.5,   14.1,   13.1,   12.8,   14.7,   15.8,   12.3,   14.9,   14.6,   14.1,  999.0,  999.0,  999.0,  999.0,  999.0,  999.0,  999.0,  999.0,  999.0,  999.0,  999.0,  999.0,  999.0,  999.0,  999.0,  999.0,  999.0,  999.0,  999.0,  999.0,  999.0,  999.0,  999.0,  999.0,  999.0,  999.0,  999.0,  999.0,  999.0,  999.0,  999.0
2004/07/31 00:20,    0.0,   -0.1,   -0.0,   -0.7,  999.0,    5.5,    3.4,    6.0,    6.6,    8.1,    9.5,   10.3,   10.7,   10.8,   11.1,   11.9,   12.7,   13.3,   13.6,   14.3,   14.2,   13.6,   13.6,   10.3,   13.5,   12.9,   12.2,   12.4,   12.4,   15.2,   15.5,   14.9,   15.6,   17.2,   17.1,   16.4,   14.4,   14.7,  999.0,  999.0,  999.0,  999.0,  999.0,  999.0,  999.0,  999.0,  999.0,  999.0,  999.0,  999.0,  999.0,  999.0,  999.0,  999.0,  999.0,  999.0,  999.0,  999.0,  999.0,  999.0,  999.0,  999.0,  999.0,  999.0,  999.0,  999.0,  999.0,  999.0,  999.0,  999.0
2004/07/31 00:30,   -0.0,    0.1,    0.0,    0.1,    0.1,    0.1,    3.0,    4.2,    6.6,    6.5,    6.8,   10.2,   11.3,   13.1,   13.1,   13.1,   15.3,   15.4,   15.6,   16.1,   16.1,   16.2,   15.5,  999.0,   12.8,   10.3,    9.2,    9.0,   12.4,   10.9,   10.9,   11.8,   13.0,   14.8,   15.2,   14.9,   14.1,   14.7,   14.7,  999.0,  999.0,  999.0,  999.0,  999.0,  999.0,  999.0,  999.0,  999.0,  999.0,  999.0,  999.0,  999.0,  999.0,  999.0,  999.0,  999.0,  999.0,  999.0,  999.0,  999.0,  999.0,  999.0,  999.0,  999.0,  999.0,  999.0,  999.0,  999.0,  999.0,  999.0
2004/07/31 00:40,    0.2,   -0.0,    0.4,    0.1,    0.2,    0.6,    1.5,    5.1,    6.3,    8.1,    9.4,    9.7,   11.6,   13.2,   12.3,   13.8,   14.6,   15.6,   15.7,   15.4,   16.4,   15.7,   16.9,   17.8,  999.0,  999.0,    8.6,    9.0,  999.0,    9.7,  999.0,  999.0,  999.0,  999.0,  999.0,  999.0,  999.0,  999.0,  999.0,  999.0,  999.0,  999.0,  999.0,  999.0,  999.0,  999.0,  999.0,  999.0,  999.0,  999.0,  999.0,  999.0,  999.0,  999.0,  999.0,  999.0,  999.0,  999.0,  999.0,  999.0,  999.0,  999.0,  999.0,    1.1,    1.8,    1.5,    1.5,    1.8,    2.4,    2.0
2004/07/31 00:50,  999.0,   -0.1,   -0.0,    4.8,  999.0,  999.0,  999.0,    7.8,    9.0,    8.5,    8.3,    9.4,   10.8,   13.0,   12.5,   15.6,   13.6,   14.7,   15.1,   15.5,   16.2,   16.5,   16.3,   15.9,   15.9,   12.8,   12.7,   12.7,   11.8,   13.2,   13.3,   14.0,   11.6,   12.6,   14.6,   12.7,   13.8,  999.0,  999.0,  999.0,  999.0,  999.0,  999.0,  999.0,  999.0,  999.0,  999.0,  999.0,  999.0,  999.0,  999.0,  999.0,  999.0,  999.0,  999.0,  999.0,  999.0,  999.0,  999.0,  999.0,  999.0,  999.0,  999.0,    3.4,    3.3,    3.9,    3.0,    2.5,    2.3,    1.7
2004/07/31 01:00,  999.0,    6.0,  999.0,  999.0,  999.0,  999.0,  999.0,   -1.3,  999.0,  999.0,    9.7,    7.8,  999.0,  999.0,    5.1,  999.0,   13.7,   12.4,   15.7,   15.0,   17.0,   19.0,   18.1,   18.1,   16.5,   16.1,   13.1,  999.0,   11.4,   12.3,  999.0,   13.2,   11.7,   13.3,  999.0,   14.7,   14.8,  999.0,  999.0,  999.0,  999.0,  999.0,  999.0,  999.0,  999.0,  999.0,  999.0,  999.0,  999.0,  999.0,  999.0,  999.0,  999.0,  999.0,  999.0,  999.0,  999.0,  999.0,  999.0,  999.0,  999.0,  999.0,  999.0,  999.0,  999.0,  999.0,  999.0,  999.0,  999.0,  999.0
2004/07/31 01:10,   -0.0,    0.1,    0.2,    0.0,    0.3,    2.6,    3.6,    3.5,    4.5,    4.9,    6.0,    6.7,    9.9,   11.1,   12.1,   12.3,   12.4,   14.3,   15.3,   16.6,   18.4,   19.2,   16.8,   16.7,   14.6,   13.0,   11.3,   10.1,   10.5,   11.3,  999.0,  999.0,    0.1,    0.6,  999.0,  999.0,  999.0,  999.0,  999.0,  999.0,  999.0,  999.0,  999.0,  999.0,  999.0,  999.0,  999.0,  999.0,  999.0,  999.0,  999.0,  999.0,  999.0,  999.0,  999.0,  999.0,   -0.0,  999.0,  999.0,  999.0,  999.0,  999.0,  999.0,  999.0,  999.0,  999.0,  999.0,  999.0,  999.0,  999.0
2004/07/31 01:20,    0.0,   -0.0,   -0.0,    0.0,    0.3,    2.4,    4.7,    6.9,    9.2,    9.8,  999.0,  999.0,   11.0,   10.4,   11.3,   12.4,   15.6,   11.8,   15.8,   14.7,   15.7,   17.2,   17.1,   17.4,   18.4,   17.3,   16.0,   14.2,   13.6,   12.9,  999.0,  999.0,  999.0,  999.0,  999.0,  999.0,  999.0,  999.0,  999.0,  999.0,  999.0,  999.0,  999.0,  999.0,  999.0,  999.0,  999.0,  999.0,  999.0,  999.0,  999.0,  999.0,  999.0,  999.0,  999.0,  999.0,  999.0,  999.0,  999.0,  999.0,  999.0,  999.0,  999.0,  999.0,  999.0,  999.0,  999.0,  999.0,  999.0,  999.0
2004/07/31 01:30,    0.1,    3.4,    3.3,    0.0,    0.2,    0.4,    3.9,  999.0,  999.0,    6.4,    9.5,    8.7,   10.7,    9.3,    8.5,   12.2,   12.4,   11.1,   12.9,   13.0,   13.7,   14.0,   15.3,   17.4,   20.2,   18.4,   15.7,   14.4,   13.1,  999.0,  999.0,  999.0,  999.0,  999.0,  999.0,  999.0,  999.0,  999.0,  999.0,  999.0,  999.0,  999.0,  999.0,  999.0,  999.0,  999.0,  999.0,  999.0,  999.0,  999.0,  999.0,  999.0,  999.0,  999.0,  999.0,  999.0,  999.0,  999.0,  999.0,  999.0,  999.0,  999.0,  999.0,  999.0,  999.0,  999.0,  999.0,  999.0,  999.0,  999.0
2004/07/31 01:40,    0.8,   -0.8,   -0.4,    1.1,    4.0,    1.6,    4.1,    5.5,    4.0,    4.8,    3.4,    4.9,    7.0,    4.9,    6.4,    9.0,   13.0,   12.7,   11.9,   11.6,   13.8,   14.1,   14.4,   16.0,   17.3,   16.8,   15.1,   14.4,   13.1,  999.0,   12.7,  999.0,  999.0,  999.0,  999.0,  999.0,  999.0,  999.0,  999.0,  999.0,  999.0,  999.0,  999.0,  999.0,  999.0,  999.0,  999.0,  999.0,  999.0,  999.0,  999.0,  999.0,  999.0,  999.0,  999.0,  999.0,  999.0,  999.0,  999.0,  999.0,  999.0,  999.0,  999.0,  999.0,  999.0,  999.0,  999.0,  999.0,  999.0,  999.0
2004/07/31 01:50,  999.0,  999.0,    1.7,    2.3,    1.5,    3.4,    4.3,    3.4,    5.6,    4.1,    4.8,    7.8,    8.3,    9.0,    9.6,   11.0,   11.3,   11.7,   12.2,   11.2,   12.6,   14.5,   15.1,   16.0,   18.8,   18.6,   17.8,   16.6,   15.7,   15.6,   15.6,   16.7,  999.0,  999.0,  999.0,  999.0,  999.0,  999.0,  999.0,  999.0,  999.0,  999.0,  999.0,  999.0,  999.0,  999.0,  999.0,  999.0,  999.0,  999.0,  999.0,  999.0,  999.0,  999.0,  999.0,  999.0,  999.0,  999.0,  999.0,  999.0,  999.0,  999.0,  999.0,  999.0,  999.0,  999.0,  999.0,  999.0,  999.0,  999.0
2004/07/31 02:00,  999.0,    7.6,    6.3,    1.6,    1.1,    4.4,    4.4,    4.7,    4.4,    5.6,    8.5,    8.6,    6.3,    7.9,    8.1,    9.2,   11.5,   14.9,   14.6,   15.5,   16.4,   16.3,   15.8,   14.7,   18.1,   18.0,   16.4,   16.9,   16.3,   16.1,   17.4,   15.2,   14.9,  999.0,  999.0,  999.0,  999.0,  999.0,  999.0,  999.0,  999.0,  999.0,  999.0,  999.0,  999.0,  999.0,  999.0,  999.0,  999.0,  999.0,  999.0,  999.0,  999.0,  999.0,  999.0,  999.0,  999.0,  999.0,  999.0,  999.0,  999.0,  999.0,  999.0,  999.0,  999.0,  999.0,  999.0,  999.0,  999.0,  999.0
2004/07/31 02:10,  999.0,  999.0,  999.0,    6.1,    7.7,    7.0,    5.5,    6.7,    6.7,    4.3,    7.4,    8.7,   10.3,   11.4,    7.4,    8.4,    9.0,   10.0,   11.2,   12.5,   13.6,   14.0,   15.4,    7.5,   16.0,   15.7,   12.7,   11.5,  999.0,    0.2,  999.0,    0.1,    0.1,  999.0,  999.0,  999.0,  999.0,  999.0,  999.0,  999.0,  999.0,  999.0,  999.0,  999.0,  999.0,  999.0,  999.0,  999.0,  999.0,  999.0,  999.0,  999.0,  999.0,  999.0,  999.0,  999.0,  999.0,  999.0,  999.0,  999.0,  999.0,  999.0,  999.0,  999.0,  999.0,  999.0,  999.0,  999.0,  999.0,  999.0
2004/07/31 02:20,    9.7,  999.0,    9.0,    2.3,    5.0,    4.9,    6.9,    7.4,    6.5,    6.8,    7.9,    7.0,    7.2,    9.5,    9.9,   10.1,   12.3,   13.4,   16.5,   18.8,   18.4,   17.6,   14.1,   14.7,   19.6,   16.3,   15.6,   15.5,   14.5,  999.0,  999.0,  999.0,  999.0,  999.0,  999.0,  999.0,  999.0,  999.0,  999.0,  999.0,  999.0,  999.0,  999.0,  999.0,  999.0,  999.0,  999.0,  999.0,  999.0,  999.0,  999.0,  999.0,  999.0,  999.0,  999.0,  999.0,  999.0,  999.0,  999.0,  999.0,  999.0,  999.0,  999.0,  999.0,  999.0,  999.0,  999.0,  999.0,  999.0,  999.0
2004/07/31 02:30,  999.0,  999.0,   -0.8,    2.6,    7.8,    7.1,    9.1,    6.7,    5.3,    2.9,    4.1,    3.3,    8.1,    9.1,    8.1,    9.5,   14.6,   14.4,   15.4,   16.9,   16.3,   17.3,   17.7,   17.0,   20.0,   18.5,   18.5,   16.6,   15.6,   14.9,   15.8,  999.0,  999.0,  999.0,  999.0,  999.0,  999.0,  999.0,  999.0,  999.0,  999.0,  999.0,  999.0,  999.0,  999.0,  999.0,  999.0,  999.0,  999.0,  999.0,  999.0,  999.0,  999.0,  999.0,  999.0,  999.0,  999.0,  999.0,  999.0,  999.0,  999.0,  999.0,  999.0,  999.0,  999.0,  999.0,  999.0,  999.0,  999.0,  999.0
2004/07/31 02:40,  999.0,  999.0,    5.9,    2.1,    6.2,    6.6,    3.9,    6.7,    4.9,    5.7,    8.0,    8.7,    5.3,    8.2,   10.2,  999.0,    6.4,  999.0,   11.5,   12.5,   12.9,   10.0,   11.6,   13.4,   11.4,    9.2,    9.6,    9.9,   10.8,   10.2,   10.1,  999.0,    5.1,  999.0,  999.0,  999.0,  999.0,  999.0,  999.0,  999.0,  999.0,  999.0,  999.0,  999.0,  999.0,  999.0,  999.0,  999.0,  999.0,  999.0,  999.0,  999.0,  999.0,  999.0,  999.0,  999.0,  999.0,  999.0,  999.0,  999.0,  999.0,  999.0,  999.0,  999.0,  999.0,  999.0,  999.0,  999.0,  999.0,  999.0
2004/07/31 02:50,   13.8,    9.9,   14.6,   14.4,  999.0,  999.0,   15.3,    5.4,    7.7,    8.1,    5.3,    7.1,    6.7,   10.4,   10.4,    7.0,  999.0,    7.5,    8.4,  999.0,  999.0,    6.5,    8.4,  999.0,    8.7,   10.0,   11.1,   11.2,   11.6,   11.5,   11.0,   11.1,   11.0,  999.0,  999.0,  999.0,  999.0,  999.0,  999.0,  999.0,  999.0,  999.0,  999.0,  999.0,  999.0,  999.0,  999.0,  999.0,  999.0,  999.0,  999.0,  999.0,  999.0,  999.0,  999.0,  999.0,  999.0,  999.0,  999.0,  999.0,  999.0,  999.0,  999.0,  999.0,  999.0,  999.0,  999.0,  999.0,  999.0,  999.0
2004/07/31 03:00,    0.1,  999.0,   12.4,    8.4,    9.0,    7.0,    5.4,    7.4,    9.9,    9.2,   10.1,   10.3,   11.5,   10.1,    7.3,    7.9,    9.9,   10.1,   11.8,    9.5,   13.0,   10.9,   10.2,   10.3,   11.1,   10.4,   10.9,   10.9,   11.5,   11.5,   11.1,   11.1,  999.0,  999.0,  999.0,  999.0,  999.0,  999.0,  999.0,  999.0,  999.0,  999.0,  999.0,  999.0,  999.0,  999.0,  999.0,  999.0,  999.0,  999.0,  999.0,  999.0,  999.0,  999.0,  999.0,  999.0,  999.0,  999.0,  999.0,  999.0,  999.0,  999.0,  999.0,  999.0,  999.0,  999.0,  999.0,  999.0,  999.0,  999.0
2004/07/31 03:10,  999.0,  999.0,  999.0,    5.4,    4.2,    3.7,    2.6,    5.2,    2.9,    6.0,    5.4,    4.6,    4.7,  999.0,   12.4,    8.5,    8.4,    4.7,    2.3,    7.5,    8.9,    3.8,   12.5,   11.8,  999.0,    8.5,    5.1,    7.3,    6.6,    6.1,    5.7,  999.0,  999.0,  999.0,  999.0,  999.0,  999.0,  999.0,  999.0,  999.0,  999.0,  999.0,  999.0,  999.0,  999.0,  999.0,  999.0,  999.0,  999.0,  999.0,  999.0,  999.0,  999.0,  999.0,  999.0,  999.0,  999.0,  999.0,  999.0,  999.0,  999.0,  999.0,  999.0,  999.0,  999.0,  999.0,  999.0,  999.0,  999.0,  999.0
2004/07/31 03:20,    0.7,    1.2,    1.3,    0.9,    1.3,    3.2,    5.4,    3.7,    4.6,    8.1,    9.0,    8.7,  999.0,  999.0,   10.3,   20.3,   11.8,   15.2,  999.0,  999.0,    8.3,    6.5,    5.1,    4.0,   11.2,  999.0,    9.1,    3.7,    0.3,    0.9,  999.0,    0.2,   -0.1,  999.0,  999.0,  999.0,  999.0,  999.0,  999.0,  999.0,  999.0,  999.0,  999.0,  999.0,  999.0,  999.0,  999.0,  999.0,  999.0,  999.0,  999.0,  999.0,  999.0,  999.0,  999.0,  999.0,  999.0,  999.0,  999.0,  999.0,  999.0,  999.0,  999.0,  999.0,  999.0,  999.0,  999.0,    5.4,    4.7,    5.1
2004/07/31 03:30,  999.0,  999.0,   11.1,  999.0,   13.8,   11.5,    9.8,   12.4,    7.5,   12.0,    8.4,    9.2,    7.1,    8.9,   12.0,   11.2,    9.7,    9.2,   10.7,    7.8,    8.8,    9.0,   12.3,    6.9,   12.9,    9.8,    8.0,    6.3,    7.4,    2.4,    2.6,    3.7,  999.0,  999.0,  999.0,  999.0,  999.0,  999.0,  999.0,  999.0,  999.0,  999.0,  999.0,  999.0,  999.0,  999.0,  999.0,  999.0,  999.0,  999.0,  999.0,  999.0,  999.0,  999.0,  999.0,  999.0,  999.0,  999.0,  999.0,  999.0,  999.0,  999.0,  999.0,  999.0,  999.0,    4.8,    4.8,    5.3,    5.3,    5.2
2004/07/31 03:40,   17.6,   17.9,   19.4,  999.0,    6.3,    6.3,    9.9,    7.0,  999.0,   10.3,  999.0,    5.9,    7.5,  999.0,  999.0,   14.1,   10.8,    8.5,    8.6,   10.8,   10.0,   10.7,   10.8,   10.7,   15.5,   16.6,   11.2,   12.1,   10.3,   10.4,   10.0,   10.5,  999.0,  999.0,  999.0,  999.0,  999.0,  999.0,   17.1,   15.9,   15.0,  999.0,  999.0,  999.0,  999.0,  999.0,  999.0,  999.0,  999.0,  999.0,  999.0,  999.0,  999.0,  999.0,  999.0,  999.0,  999.0,  999.0,  999.0,  999.0,    8.2,    6.6,    5.9,    4.6,    4.1,    4.0,    4.1,    3.5,    3.4,    2.5
2004/07/31 03:50,   14.8,   10.6,   16.2,    8.5,  999.0,  999.0,  999.0,   13.4,    6.8,  999.0,    4.5,    7.5,    8.3,    9.9,  999.0,    5.7,    6.2,    8.1,   10.5,   11.4,   12.5,   13.7,   13.3,   12.5,   14.8,   14.4,  999.0,   12.1,   11.9,   14.4,   16.2,  999.0,  999.0,  999.0,  999.0,   19.1,   19.5,   19.6,  999.0,  999.0,  999.0,  999.0,  999.0,  999.0,  999.0,  999.0,  999.0,  999.0,  999.0,  999.0,  999.0,  999.0,  999.0,  999.0,  999.0,  999.0,  999.0,  999.0,    8.7,    7.3,    7.1,    7.2,    6.4,    6.0,    5.7,    5.1,    4.2,    3.6,    3.4,    3.0
2004/07/31 04:00,    0.1,   -0.1,  999.0,    4.8,  999.0,  999.0,    6.3,    4.7,    5.9,    8.3,    9.4,   10.1,   10.4,   11.3,   10.1,   11.2,   11.7,   12.6,   14.7,   15.0,   14.5,   14.4,   14.8,   16.7,   17.0,   16.5,   17.7,  999.0,   18.8,   19.7,   20.5,   20.4,  999.0,   19.5,   19.4,   19.5,   18.6,   17.2,  999.0,  999.0,  999.0,  999.0,  999.0,  999.0,  999.0,  999.0,  999.0,  999.0,  999.0,  999.0,  999.0,  999.0,  999.0,  999.0,  999.0,  999.0,  999.0,    8.8,    7.6,    7.2,    6.7,    6.1,    5.5,    5.5,    5.3,    5.1,    4.9,    5.0,    4.5,    5.0
2004/07/31 04:10,    2.8,    4.3,    9.3,    6.4,  999.0,   12.3,    7.0,   10.5,   12.5,   10.5,   10.0,    8.4,    9.2,    8.5,   11.8,    8.9,    8.7,    9.0,    9.9,   12.2,   13.1,   13.9,   13.6,   14.9,   16.5,   16.5,   17.3,   14.8,   16.3,   18.2,   19.4,   19.6,   20.2,   19.9,  999.0,  999.0,  999.0,  999.0,  999.0,  999.0,  999.0,  999.0,  999.0,  999.0,  999.0,  999.0,  999.0,  999.0,   13.7,   10.8,   10.6,   10.7,   10.5,   10.3,   12.0,    9.3,    9.2,    8.6,    7.5,    6.8,    6.8,    6.9,    6.8,    7.0,    6.4,    5.6,    5.0,    4.2,    4.1,    4.4
2004/07/31 04:20,  999.0,    7.8,    4.5,    0.5,    1.9,    2.0,    3.5,    4.2,    6.1,    7.4,    7.1,   13.5,    5.9,    5.9,    5.8,    4.4,  999.0,    9.7,  999.0,   15.8,  999.0,   16.0,   15.9,   16.2,   17.0,   18.5,   17.3,   16.1,   15.6,   17.0,   18.8,   20.2,   17.1,   16.9,  999.0,  999.0,  999.0,  999.0,  999.0,  999.0,  999.0,  999.0,  999.0,  999.0,  999.0,  999.0,  999.0,  999.0,  999.0,   11.6,    9.9,    8.9,    8.8,    8.6,    9.1,    8.7,    8.0,    6.9,    6.2,    5.5,    5.2,    5.5,    6.3,    6.6,    6.5,    5.6,    5.4,    5.0,    4.7,    4.6
2004/07/31 04:30,    1.1,   -1.3,    1.6,    1.2,    4.8,    5.6,    6.7,    1.7,    2.1,    2.9,  999.0,   -2.3,  999.0,  999.0,    7.6,  999.0,    4.6,    6.7,   12.3,   12.5,    8.2,  999.0,   11.1,   13.0,   14.3,   14.9,   16.3,   13.5,   12.1,   13.8,   17.7,   15.4,   18.5,   19.7,  999.0,  999.0,  999.0,  999.0,  999.0,  999.0,  999.0,  999.0,  999.0,  999.0,  999.0,  999.0,  999.0,  999.0,  999.0,   15.6,   13.2,   10.9,    8.5,    8.7,    8.9,    8.9,    8.7,    8.3,    7.7,    7.5,    6.8,    6.5,    6.3,    5.8,    6.0,    6.6,    6.7,    6.4,    5.8,    5.4
2004/07/31 04:40,   -0.1,    0.1,   -2.7,   -0.0,    3.0,    6.2,    7.5,    8.0,    7.9,    9.2,    8.6,    8.4,   12.3,   11.5,   12.5,   11.2,   11.7,   12.0,   12.9,   15.1,   10.1,   11.0,  999.0,    9.7,   15.0,   12.2,   11.9,   10.6,   12.4,   12.2,   13.9,   16.8,   18.4,   16.5,  999.0,  999.0,  999.0,  999.0,  999.0,  999.0,  999.0,  999.0,  999.0,  999.0,  999.0,  999.0,  999.0,   14.7,   14.1,   14.6,   14.2,   12.8,   11.5,    9.9,    9.0,    7.7,    6.4,    6.3,    6.1,    5.8,    5.6,    5.5,    5.2,    5.0,    5.0,    5.2,    5.4,    5.8,    6.1,    6.0
2004/07/31 04:50,  999.0,    0.1,  999.0,  999.0,    6.0,   12.6,   13.8,    6.9,    9.6,    7.8,    4.0,    3.7,    7.3,    8.5,   12.5,   10.2,    7.8,    7.4,   10.8,    9.4,   10.3,    8.8,   12.4,   11.1,   14.2,   14.8,   11.8,   10.8,   12.1,   16.5,   16.3,   13.9,   11.9,   17.8,   18.1,  999.0,  999.0,  999.0,  999.0,  999.0,  999.0,  999.0,  999.0,  999.0,  999.0,  999.0,  999.0,  999.0,  999.0,  999.0,  999.0,  999.0,    8.0,    8.7,    7.3,    6.7,    6.6,    5.7,    5.5,    5.8,    5.2,    4.7,    4.3,    3.7,    4.0,    4.6,    5.7,    5.9,    5.7,    5.7
2004/07/31 05:00,    0.9,    3.9,    1.5,    2.9,    5.0,    5.4,   10.2,    9.6,   13.2,   14.5,   10.4,    7.5,    8.1,    9.2,  999.0,    8.0,    8.4,   14.9,   12.5,    8.0,   11.1,   11.2,    8.5,   12.5,   11.5,   15.0,   13.6,   12.3,   12.7,   16.3,   15.6,    9.9,    7.1,  999.0,  999.0,  999.0,  999.0,  999.0,  999.0,  999.0,  999.0,  999.0,  999.0,  999.0,  999.0,  999.0,  999.0,  999.0,  999.0,  999.0,  999.0,  999.0,  999.0,    5.0,  999.0,    9.6,  999.0,    6.3,    6.0,    5.8,    5.7,    4.7,    3.3,    2.4,    2.5,    2.8,    3.0,    3.3,    3.5,    3.8
2004/07/31 05:10,  999.0,  999.0,  999.0,  999.0,  999.0,  999.0,  999.0,  999.0,    6.4,  999.0,    8.2,   10.6,   11.0,    9.1,   10.2,    8.9,    9.2,   10.2,    9.8,   11.7,   12.8,   14.3,   14.0,   10.9,    7.4,   13.0,   10.6,   12.4,  999.0,   11.2,   11.3,   11.3,   11.6,   11.0,  999.0,  999.0,  999.0,  999.0,  999.0,  999.0,  999.0,  999.0,  999.0,  999.0,  999.0,  999.0,  999.0,  999.0,  999.0,  999.0,  999.0,  999.0,  999.0,  999.0,  999.0,  999.0,  999.0,  999.0,  999.0,  999.0,    7.3,    6.8,    5.2,    3.8,    3.2,    2.6,    2.7,    3.7,    3.6,    3.2
2004/07/31 05:20,  999.0,   18.2,   19.0,   16.4,  999.0,    4.2,    9.0,    2.9,    2.7,    6.2,   13.6,    4.3,    5.5,    7.0,    7.9,    6.9,    8.9,   11.1,   10.1,   13.1,   10.2,   10.9,    9.8,    7.3,   10.4,   10.4,    9.6,    9.5,   12.3,    9.1,    8.4,  999.0,  999.0,    9.9,   14.2,  999.0,  999.0,  999.0,   17.8,   19.2,  999.0,  999.0,  999.0,  999.0,  999.0,  999.0,  999.0,  999.0,    7.2,  999.0,  999.0,  999.0,  999.0,  999.0,  999.0,  999.0,  999.0,  999.0,  999.0,  999.0,    9.5,    8.1,  999.0,  999.0,    6.8,    6.1,    5.7,    5.2,    5.4,    4.5
2004/07/31 05:30,    5.9,    7.2,    4.1,    4.1,  999.0,    2.7,    6.6,    4.8,    6.3,    7.0,  999.0,    9.4,    5.7,    2.3,  999.0,    7.1,    7.5,   16.0,   10.1,    6.5,    9.0,    9.8,   11.3,   11.1,   16.7,   16.5,   12.8,   11.3,   13.1,   10.1,   14.7,   14.7,   12.5,   17.2,   19.1,   19.5,   19.8,   19.9,   19.5,   20.7,  999.0,  999.0,  999.0,  999.0,  999.0,  999.0,  999.0,  999.0,  999.0,  999.0,  999.0,  999.0,  999.0,  999.0,  999.0,  999.0,  999.0,   12.3,  999.0,  999.0,  999.0,  999.0,  999.0,    5.3,    4.8,    5.5,    4.6,    3.3,    3.7,    4.0
2004/07/31 05:40,    9.7,    5.2,    4.0,    5.5,    6.6,    7.6,    6.1,    5.2,    6.1,    5.0,    8.4,   10.5,   10.3,   12.5,   11.6,   13.7,   10.4,   12.0,   13.0,   12.1,   13.1,   13.2,   14.8,   14.9,   14.5,   15.7,   15.4,   16.3,   15.3,   17.2,   16.8,   17.3,   17.8,   18.4,   19.0,   19.6,   20.1,   20.9,   20.0,   19.8,   19.8,   18.6,  999.0,  999.0,  999.0,  999.0,  999.0,  999.0,  999.0,  999.0,  999.0,  999.0,  999.0,  999.0,    9.5,  999.0,  999.0,   12.7,   12.1,   11.2,   14.4,  999.0,  999.0,  999.0,  999.0,  999.0,  999.0,  999.0,  999.0,    3.3
2004/07/31 05:50,    5.3,   -0.5,    2.3,    7.1,    4.9,    6.0,    8.1,    8.0,    9.0,  999.0,    4.8,    6.1,   11.8,   12.4,   14.9,   15.6,   15.6,   15.4,   16.1,   15.3,   15.9,   14.8,   14.7,   15.9,   16.1,   17.6,   17.6,   18.2,   18.3,   19.1,   19.7,   20.4,   21.3,   19.4,   19.8,   17.5,   18.6,  999.0,  999.0,   24.0,   24.6,  999.0,   25.6,   24.7,   22.5,  999.0,  999.0,  999.0,  999.0,  999.0,  999.0,  999.0,  999.0,  999.0,  999.0,  999.0,  999.0,  999.0,   14.8,   14.4,   14.2,   14.0,   11.6,    8.4,    5.3,    4.1,    4.6,    4.8,    4.7,    4.7
2004/07/31 06:00,   20.3,   15.8,   11.9,    8.7,    7.2,    2.6,    4.1,    7.5,   10.4,    7.6,    9.1,    8.8,   10.9,   11.1,    9.7,    9.7,   12.8,   12.9,   13.7,   13.2,   15.1,   17.0,   15.9,   16.2,   15.0,   18.6,   15.7,   15.9,   16.6,   15.4,   16.7,   15.6,   19.0,   19.6,   20.4,   17.0,   21.0,   21.2,   22.5,   23.1,   23.6,   23.7,   23.1,   21.9,  999.0,   19.4,   20.0,   16.1,   14.6,   14.5,   14.5,   14.4,   13.0,   12.6,   12.2,   12.1,   12.8,   12.1,   10.9,   11.1,   11.4,   11.1,    9.8,    8.6,    8.9,    5.9,    7.5,    7.5,    7.2,    7.6
2004/07/31 06:10,  999.0,  999.0,    7.4,    7.8,    7.7,    8.0,    9.6,    9.6,   10.0,   11.5,   12.3,   14.5,   14.5,   12.9,   10.5,   10.4,   11.5,   12.0,   11.5,   10.6,   13.2,   12.0,   14.7,   15.1,   15.4,   15.1,   14.5,   16.3,   16.6,   17.4,   18.1,   17.6,   17.6,   18.2,   18.9,   20.2,   22.0,   22.7,   22.6,   23.0,  999.0,  999.0,   24.3,   19.5,  999.0,  999.0,   16.7,  999.0,  999.0,   11.3,   10.0,    9.3,    9.2,   10.7,    9.8,    7.3,    5.3,    3.9,    2.3,    0.5,    0.4,    2.2,    2.4,    2.3,    3.6,    3.2,    3.4,    4.2,    4.3,    4.8
2004/07/31 06:20,    2.0,    2.9,    5.5,    6.0,    4.7,    6.2,    8.5,    9.7,   12.4,    9.7,   11.7,   10.6,   11.1,   10.6,   13.3,   14.6,   13.4,   12.8,   13.5,   14.2,   13.7,   15.4,   15.7,   15.9,   15.4,   15.4,   15.9,   17.8,   17.7,   21.0,   22.4,   21.4,   13.3,  999.0,   21.5,   19.3,   22.1,   18.2,   19.5,   19.0,   19.5,   19.0,  999.0,  999.0,  999.0,  999.0,  999.0,  999.0,  999.0,  999.0,  999.0,  999.0,  999.0,  999.0,  999.0,   13.6,   12.4,  999.0,  999.0,   10.3,    8.1,    7.9,    6.9,    4.8,    2.5,    0.0,   -0.6,   -1.3,   -1.1,   -1.8
2004/07/31 06:30,    3.9,    4.5,    5.8,    5.6,    5.1,    7.3,    7.1,    7.4,    8.4,   11.1,   10.8,    9.5,   12.2,   12.9,    8.9,   12.8,    9.8,   11.0,   11.1,   13.9,   15.8,   14.8,   17.1,   18.8,   14.3,   20.4,   17.2,   20.0,   19.0,   19.2,   20.4,   19.1,   18.2,   19.4,   19.9,   21.0,   21.0,   20.8,   20.3,   17.8,   19.9,   13.7,   21.2,   21.6,  999.0,  999.0,  999.0,  999.0,  999.0,  999.0,  999.0,  999.0,  999.0,  999.0,  999.0,   13.3,   13.1,   13.2,    9.4,    8.5,    9.6,    9.2,    7.7,    7.8,    6.7,    6.2,    4.9,    3.2,    1.3,    0.8
2004/07/31 06:40,    5.5,    4.9,    5.7,    8.0,    7.3,    8.8,    7.3,    6.5,    7.2,   11.7,   14.4,  999.0,   15.4,   11.8,   16.3,    8.0,   10.3,   11.2,   11.2,   16.5,   12.4,   10.4,    8.7,   11.9,   10.1,   14.7,   10.7,   13.8,   10.4,   12.4,   11.3,   11.2,    9.1,    8.1,    9.8,    7.2,   11.9,  999.0,  999.0,  999.0,  999.0,    5.4,  999.0,  999.0,  999.0,  999.0,  999.0,  999.0,  999.0,  999.0,  999.0,  999.0,  999.0,  999.0,  999.0,  999.0,  999.0,  999.0,   10.6,    9.3,    8.1,    8.4,    6.8,    6.9,    5.2,    4.5,    2.7,    2.2,    0.5,   -1.0
2004/07/31 06:50,   16.4,  999.0,   12.2,   13.3,   12.3,   11.0,   13.6,   15.3,   13.3,   14.0,   14.7,   14.0,   13.2,   15.3,   15.7,   17.3,   18.8,   17.6,   18.4,   20.0,   18.1,   17.9,   17.4,   15.9,   16.6,   16.4,   15.8,   16.6,   14.5,   14.7,   14.9,   14.6,   12.9,   12.5,   14.7,   15.4,   14.8,   15.0,   14.3,   15.5,   19.2,   15.4,  999.0,  999.0,  999.0,  999.0,  999.0,  999.0,  999.0,  999.0,  999.0,  999.0,  999.0,  999.0,  999.0,  999.0,  999.0,  999.0,  999.0,  999.0,  999.0,  999.0,  999.0,  999.0,  999.0,    3.4,    2.6,    2.4,    2.5,    3.2
2004/07/31 07:00,   -0.0,    0.5,    2.2,    3.2,    4.5,    6.7,    8.3,    9.8,    9.3,   10.2,   10.3,   11.7,   12.3,   14.5,   15.2,   16.2,   15.8,   20.1,   16.6,   17.1,   18.4,   15.2,   15.2,   14.9,   15.1,   14.7,   11.7,   11.4,   14.0,   17.0,  999.0,  999.0,  999.0,  999.0,  999.0,  999.0,  999.0,  999.0,  999.0,  999.0,  999.0,  999.0,  999.0,  999.0,  999.0,  999.0,  999.0,  999.0,  999.0,  999.0,  999.0,  999.0,  999.0,  999.0,  999.0,  999.0,  999.0,  999.0,  999.0,  999.0,  999.0,  999.0,  999.0,  999.0,  999.0,  999.0,  999.0,  999.0,  999.0,  999.0
2004/07/31 07:10,   11.0,   10.5,   11.5,    9.4,    8.2,    9.4,   10.0,   11.5,   10.5,    9.6,    9.3,   11.2,   10.1,   11.3,   12.0,   12.9,   12.9,   13.8,   12.4,   13.0,   13.6,   13.6,   11.4,    9.1,   13.0,   13.6,   10.6,    8.8,  999.0,   11.6,   14.5,   14.1,   14.2,  999.0,  999.0,  999.0,  999.0,  999.0,  999.0,  999.0,  999.0,  999.0,  999.0,  999.0,  999.0,  999.0,  999.0,  999.0,  999.0,  999.0,  999.0,  999.0,  999.0,  999.0,  999.0,  999.0,  999.0,  999.0,  999.0,  999.0,  999.0,  999.0,  999.0,  999.0,  999.0,  999.0,  999.0,  999.0,  999.0,  999.0
2004/07/31 07:20,   10.7,   10.9,   11.5,    8.0,    9.0,    8.8,  999.0,    7.8,   13.6,    7.7,   12.4,   13.8,   12.2,   11.5,   12.9,   12.0,   11.0,   11.8,   11.7,   12.6,   11.3,   12.9,   11.5,   12.3,   11.7,   13.3,   13.0,   10.5,   10.2,  999.0,  999.0,  999.0,   19.2,  999.0,  999.0,  999.0,   17.1,  999.0,  999.0,   15.5,  999.0,  999.0,   15.5,  999.0,  999.0,  999.0,  999.0,  999.0,  999.0,  999.0,  999.0,  999.0,  999.0,  999.0,  999.0,  999.0,  999.0,  999.0,  999.0,  999.0,  999.0,  999.0,  999.0,  999.0,  999.0,  999.0,  999.0,  999.0,  999.0,  999.0
2004/07/31 07:30,    5.4,    5.5,    7.8,    7.7,   11.0,    8.8,    9.3,    9.8,   11.0,   10.5,   10.8,   11.1,   12.9,   12.4,   12.3,   10.0,   13.1,    9.5,    7.9,    8.3,    9.5,   11.8,   10.1,  999.0,   14.6,   16.7,  999.0,   15.2,  999.0,  999.0,   18.2,   14.7,  999.0,   13.2,   15.5,   17.3,  999.0,  999.0,  999.0,  999.0,  999.0,  999.0,  999.0,  999.0,  999.0,  999.0,  999.0,  999.0,  999.0,  999.0,  999.0,  999.0,  999.0,  999.0,  999.0,  999.0,  999.0,  999.0,  999.0,  999.0,  999.0,  999.0,  999.0,  999.0,  999.0,  999.0,  999.0,  999.0,  999.0,  999.0
2004/07/31 07:40,    9.7,    9.9,    8.5,   11.3,    9.9,    9.4,    9.3,   11.3,   11.0,   11.3,   13.3,   14.0,   15.5,   15.7,   15.9,   15.6,   15.0,   14.4,   14.3,   13.1,   12.3,   11.7,   11.7,   11.8,    9.2,    8.8,   11.0,    4.5,    6.4,    4.6,    4.0,   -0.7,  999.0,  999.0,   12.8,  999.0,  999.0,  999.0,  999.0,  999.0,  999.0,  999.0,  999.0,  999.0,  999.0,  999.0,  999.0,  999.0,  999.0,  999.0,  999.0,  999.0,  999.0,  999.0,  999.0,  999.0,  999.0,  999.0,  999.0,  999.0,   11.7,   11.8,   12.3,   12.6,   10.8,   10.5,    9.5,    9.5,    9.0,    8.7
2004/07/31 07:50,    0.6,    4.3,    5.5,    6.5,   10.1,  999.0,   14.3,   12.4,   11.7,  999.0,   12.3,   13.7,   14.1,   14.7,   14.4,   14.3,   14.5,   13.9,   15.8,   14.4,   13.6,   14.2,   13.7,   12.7,   14.1,   18.0,   15.4,   18.9,   18.3,  999.0,  999.0,   17.3,   17.1,  999.0,  999.0,   18.8,   20.1,   18.5,   19.1,   19.9,  999.0,  999.0,  999.0,  999.0,  999.0,  999.0,  999.0,  999.0,  999.0,  999.0,  999.0,  999.0,  999.0,  999.0,  999.0,  999.0,  999.0,  999.0,  999.0,  999.0,   14.1,  999.0,   10.8,    9.7,    8.1,    8.2,  999.0,    2.1,    1.0,    0.8
2004/07/31 08:00,    0.1,  999.0,    4.7,    2.9,    4.7,    5.9,    9.6,    8.2,   11.1,   10.0,   11.2,    9.9,   12.1,   13.3,   14.4,   12.6,   12.7,   13.0,   13.6,   14.5,   12.7,   14.5,   14.2,   14.2,   15.3,   14.5,   12.9,   13.9,   13.7,   15.3,   15.0,   15.6,   16.1,   17.4,   18.0,   18.4,   18.7,   19.3,   18.7,   18.0,   18.2,   17.9,  999.0,  999.0,  999.0,  999.0,  999.0,  999.0,  999.0,  999.0,  999.0,  999.0,  999.0,  999.0,  999.0,  999.0,  999.0,  999.0,  999.0,  999.0,  999.0,  999.0,  999.0,  999.0,  999.0,    8.6,    9.8,  999.0,  999.0,  999.0
2004/07/31 08:10,    6.0,    3.6,    4.1,    8.2,    5.4,    7.8,    7.1,    7.7,    9.8,   12.0,   14.4,   13.8,   12.3,   13.7,   12.0,   12.1,   12.2,   13.0,   13.9,   13.2,   15.8,   14.3,   14.8,   15.5,   16.2,   17.4,   16.4,   16.0,   16.7,   16.7,   16.9,   17.1,   17.1,   16.3,   16.7,   16.8,   16.8,   17.8,   18.6,   19.0,   19.1,   19.4,   18.8,   18.7,   19.4,   20.5,  999.0,  999.0,  999.0,  999.0,  999.0,  999.0,  999.0,  999.0,  999.0,  999.0,  999.0,  999.0,  999.0,  999.0,  999.0,  999.0,  999.0,  999.0,  999.0,  999.0,  999.0,  999.0,  999.0,  999.0
2004/07/31 08:20,    8.2,    8.3,    5.5,    8.2,    9.7,   10.0,   10.0,   12.6,   12.1,   13.0,   12.2,   13.2,   13.2,   14.6,   15.1,   15.0,   15.5,   16.1,   16.8,   17.2,   17.8,   18.5,   18.6,   17.9,   17.9,   18.6,   18.4,   18.6,   18.4,   18.8,   19.3,   19.6,   20.7,   20.1,   20.4,   19.5,   18.8,   18.6,   17.5,   18.5,   18.2,   17.9,   16.6,   18.3,   17.8,   16.8,   16.7,   15.9,  999.0,  999.0,  999.0,  999.0,  999.0,  999.0,  999.0,  999.0,  999.0,  999.0,  999.0,  999.0,  999.0,  999.0,  999.0,  999.0,  999.0,   10.9,    9.0,  999.0,  999.0,  999.0
2004/07/31 08:30,    9.8,    7.6,    4.1,    7.1,    8.5,    8.7,    8.6,    8.1,   11.5,   12.7,   14.0,   13.1,   14.3,   15.2,   15.2,   16.5,   19.7,   18.5,   18.9,   19.1,   16.0,   18.1,   21.1,   15.5,   21.7,   20.2,   21.0,   20.9,   21.8,   22.2,   21.8,   21.7,   21.4,   21.0,   21.9,   21.1,   21.5,   21.5,   21.3,   21.7,   21.5,   20.7,   22.3,   21.9,  999.0,   14.8,  999.0,  999.0,  999.0,  999.0,  999.0,  999.0,  999.0,  999.0,  999.0,  999.0,  999.0,  999.0,  999.0,  999.0,  999.0,  999.0,  999.0,  999.0,  999.0,  999.0,  999.0,  999.0,  999.0,  999.0
2004/07/31 08:40,    3.7,    4.1,    4.0,    5.0,    5.5,    4.7,    7.0,    5.7,    7.0,    8.0,    8.7,    7.8,    9.9,   12.0,   12.1,   12.3,   13.0,   13.5,   11.4,   14.1,   14.0,   14.4,   15.5,   15.3,   15.4,   15.3,   16.1,   16.5,   15.9,   16.7,   17.1,   16.6,   15.9,   14.8,   17.0,   17.0,   14.3,   17.0,   15.2,   13.1,   12.5,  999.0,  999.0,   19.9,  999.0,   17.6,   17.0,   17.3,   17.4,   17.0,   16.8,  999.0,  999.0,  999.0,  999.0,  999.0,  999.0,  999.0,  999.0,  999.0,  999.0,  999.0,  999.0,  999.0,  999.0,  999.0,  999.0,  999.0,  999.0,  999.0
2004/07/31 08:50,  999.0,    7.9,    6.3,    9.0,   11.4,   11.8,   11.2,   11.9,   11.9,   13.2,   11.4,   10.1,   11.5,   12.1,   15.8,   17.1,   16.2,   14.1,   15.7,   13.8,   14.6,   16.7,   15.9,   15.4,   16.7,   16.3,   16.3,   15.6,    4.5,    6.2,    7.0,   16.7,   17.2,   17.5,   10.7,    3.0,   18.0,   18.6,  999.0,   -2.9,   -1.5,   -2.6,   -2.3,   -1.0,   -1.4,  999.0,   -0.3,    1.0,  999.0,  999.0,  999.0,  999.0,  999.0,  999.0,  999.0,  999.0,  999.0,  999.0,  999.0,  999.0,  999.0,  999.0,  999.0,  999.0,  999.0,  999.0,  999.0,  999.0,  999.0,  999.0
2004/07/31 09:00,    6.7,    5.2,    6.8,    6.8,    7.5,    9.6,   10.7,   11.9,   11.9,   13.8,   14.0,   12.5,   14.3,   16.0,   15.3,   14.5,   16.9,   17.3,   16.2,   16.4,   14.6,   15.3,   15.0,   14.5,   15.0,   15.3,   14.8,   17.5,   15.6,   15.6,   14.2,   15.6,   16.3,   16.5,   16.3,   18.2,   17.2,   18.4,   16.5,   16.1,   15.7,   15.4,  999.0,   16.9,   16.3,   16.8,   14.7,   16.0,   14.6,   15.8,   16.0,   16.2,  999.0,   16.9,   16.5,   16.8,   16.4,   15.9,   15.7,   15.2,  999.0,  999.0,  999.0,  999.0,  999.0,  999.0,  999.0,  999.0,  999.0,  999.0
2004/07/31 09:10,    7.2,    8.2,    8.9,    8.9,    9.9,   11.0,   11.3,   12.1,   12.5,   13.1,   13.0,   13.6,   13.4,   13.1,   13.5,   14.6,   15.8,   14.4,   14.3,   15.2,   16.0,   17.0,   17.4,   17.3,   15.9,   16.4,   16.0,   16.1,   16.2,   16.4,   16.0,   16.7,   17.5,   17.0,   18.5,   17.5,   17.6,   15.5,   15.1,   14.5,   15.8,   14.8,   15.1,   15.5,   14.5,   14.3,   17.0,   17.1,   17.1,   17.3,   17.0,   17.2,   16.9,   17.0,   18.8,   19.5,  999.0,  999.0,  999.0,  999.0,  999.0,  999.0,  999.0,  999.0,  999.0,  999.0,  999.0,  999.0,  999.0,  999.0
2004/07/31 09:20,    4.2,    5.7,    7.2,    8.8,    9.2,    9.7,   11.1,   12.3,   12.5,   13.6,   13.0,   13.3,   13.9,   15.2,   15.1,   14.7,   15.0,   15.4,   16.0,   16.4,   16.8,   16.8,   16.7,   15.4,   14.5,   14.1,   14.4,   14.8,   15.1,   15.4,   16.2,   16.4,   16.6,   16.4,   16.8,   17.5,   17.6,   17.3,   16.9,   16.4,   17.1,   16.1,   16.9,   15.6,   15.5,   15.1,   14.2,   14.6,   14.5,   14.3,   14.4,   14.7,   14.2,   14.0,   14.2,   14.3,   14.2,   14.0,   14.9,  999.0,   14.9,  999.0,  999.0,   14.3,  999.0,   13.5,  999.0,  999.0,  999.0,  999.0
2004/07/31 09:30,    4.8,    6.0,    6.8,    8.1,    8.9,   10.9,   11.8,   13.2,   14.3,   14.7,   14.9,   14.9,   15.9,   15.7,   16.2,   16.1,   16.4,   16.4,   16.9,   17.4,   16.7,   16.7,   16.1,   15.8,   15.7,   15.6,   15.5,   15.3,   15.2,   15.6,   16.3,   16.4,   16.6,   16.7,   17.1,   17.3,   17.1,   17.1,   16.0,   15.5,   14.8,   16.2,   16.3,  999.0,   15.3,   15.7,   14.7,   14.6,   14.4,   14.2,   14.4,   14.4,   14.5,   14.6,   14.2,   14.0,   14.1,   14.1,   14.0,   14.7,   14.1,   13.7,   13.4,   14.0,  999.0,  999.0,   13.3,   13.0,  999.0,  999.0
2004/07/31 09:40,    5.2,    5.3,    6.6,    8.1,    8.7,   11.3,   13.1,   14.2,   14.3,   14.2,   15.7,   15.6,   15.9,   15.6,   16.4,   16.6,   16.9,   17.1,   16.7,   16.9,   16.6,   16.8,   16.8,   16.5,   16.4,   16.6,   16.4,   15.9,   15.6,   15.8,   16.0,   16.1,   16.1,   16.3,   16.5,   16.8,   17.1,   17.4,   17.4,   17.5,   17.0,   16.5,   16.2,  999.0,   16.8,   16.8,   15.7,   15.3,   14.8,   14.4,   14.3,   14.0,   14.1,   14.5,   14.6,   14.7,   14.4,   14.6,   14.6,   14.8,   14.9,   14.7,   14.9,   14.6,   15.0,   14.4,   14.1,   14.2,   14.5,   14.6
2004/07/31 09:50,    7.6,    6.5,    6.3,    8.3,    8.3,   10.5,   13.6,   13.4,   14.2,   13.5,   15.3,   13.8,   14.0,   14.4,   15.7,   16.6,   15.9,   15.9,   16.1,   16.2,   15.8,   14.6,   14.1,   14.5,   15.5,   11.3,   11.5,   10.9,    7.3,   11.6,   11.5,   10.9,   10.5,   10.5,   10.5,   16.6,   16.3,   17.1,   17.4,   18.0,  999.0,  999.0,  999.0,   19.6,   19.1,   17.1,   17.0,   16.9,   17.0,   16.9,   16.3,   16.5,   16.0,   15.8,   15.9,   16.7,   16.1,   15.8,   15.5,   15.3,   15.1,   15.0,   14.9,   14.7,   14.3,   13.2,   14.1,   13.0,   13.0,  999.0
2004/07/31 10:00,  999.0,  999.0,  999.0,    5.3,    5.8,    9.6,   10.0,   13.4,   13.7,   15.0,   14.3,   14.8,   14.2,   14.2,   14.3,   14.7,   15.4,   15.5,   15.5,   14.3,   14.8,   15.1,   15.0,   14.6,   12.2,   14.6,   10.9,   11.5,   15.5,   15.0,   15.4,   11.5,   11.5,   15.2,   15.2,   16.2,  999.0,  999.0,  999.0,  999.0,  999.0,  999.0,  999.0,  999.0,  999.0,  999.0,  999.0,  999.0,  999.0,  999.0,  999.0,  999.0,  999.0,  999.0,  999.0,  999.0,  999.0,  999.0,  999.0,  999.0,   13.1,  999.0,  999.0,  999.0,  999.0,  999.0,  999.0,  999.0,  999.0,  999.0
2004/07/31 10:10,    4.9,    2.1,    4.7,    5.3,    8.1,    9.3,   10.4,   10.4,   10.8,   12.9,   12.5,   13.0,   14.3,   14.1,   13.3,   13.7,   14.0,   13.7,   14.0,   14.4,   14.6,   14.8,   13.7,   13.6,   13.8,   13.7,   13.7,   13.8,   13.4,   13.8,   14.9,   14.6,   14.6,   15.0,   15.0,   14.6,   14.2,   14.2,   13.9,   15.3,   14.3,  999.0,  999.0,  999.0,  999.0,   17.6,  999.0,  999.0,  999.0,  999.0,  999.0,   16.5,  999.0,  999.0,   15.5,   14.8,   14.0,   13.2,  999.0,  999.0,  999.0,  999.0,  999.0,  999.0,  999.0,  999.0,  999.0,  999.0,  999.0,  999.0
2004/07/31 10:20,    4.9,    6.7,    8.7,    8.5,    9.7,    8.8,    8.2,   10.9,   11.2,    9.9,   11.5,   13.8,   13.2,   14.4,   13.2,   13.2,   13.2,   12.9,   13.2,   12.9,   12.6,   11.4,   11.0,   13.3,   14.3,   14.2,   13.3,   12.8,   14.3,   16.1,   13.9,   14.8,   14.9,   15.9,   17.7,   17.7,   18.4,   18.8,   19.6,   20.1,   21.0,   22.8,   16.1,   15.3,   15.7,   19.7,  999.0,  999.0,  999.0,  999.0,  999.0,  999.0,  999.0,   15.5,   17.4,  999.0,  999.0,  999.0,  999.0,  999.0,  999.0,  999.0,  999.0,  999.0,  999.0,  999.0,  999.0,  999.0,  999.0,  999.0
2004/07/31 10:30,    3.8,    1.9,    0.7,    1.6,    5.3,    6.6,    8.7,    9.3,    9.7,   10.2,   12.9,   14.6,   14.4,   15.3,   15.8,   15.7,   16.2,   16.0,   15.5,   14.9,   16.0,   15.0,   13.3,   12.2,   14.7,  999.0,  999.0,  999.0,  999.0,  999.0,  999.0,  999.0,   19.5,   17.0,   17.4,   19.5,  999.0,  999.0,  999.0,  999.0,  999.0,  999.0,  999.0,  999.0,  999.0,  999.0,  999.0,  999.0,   16.4,  999.0,  999.0,  999.0,  999.0,  999.0,  999.0,  999.0,  999.0,  999.0,  999.0,  999.0,  999.0,  999.0,  999.0,  999.0,  999.0,  999.0,  999.0,  999.0,  999.0,  999.0
2004/07/31 10:40,    9.6,    4.1,    5.1,    7.9,    8.2,    7.7,    9.6,    9.7,    9.8,   11.0,   11.9,   13.5,   15.5,   15.1,   14.8,   15.3,   14.1,   15.3,   14.9,   15.6,   15.7,   17.8,   18.7,   18.3,   17.8,   18.5,   17.0,   15.8,   17.1,   16.0,   17.0,   16.6,   16.2,   16.6,   17.5,   17.3,   17.5,   17.5,   17.3,   17.1,   17.7,   16.5,   16.3,   16.2,   16.9,   17.8,   17.9,   18.8,   18.2,   18.3,   18.4,   19.1,   19.2,   19.6,   18.6,   18.0,   19.3,  999.0,  999.0,  999.0,  999.0,  999.0,  999.0,  999.0,  999.0,  999.0,  999.0,  999.0,  999.0,  999.0
2004/07/31 10:50,    0.7,    4.0,    2.6,    5.2,    7.2,    8.7,    8.9,   10.1,   10.6,   10.6,    9.7,   10.9,   11.2,   15.0,   14.7,   14.9,   18.2,   17.3,   16.7,   14.4,   17.8,   16.8,   15.3,   21.4,   14.8,   14.1,   15.6,   19.9,   18.6,   17.3,   18.1,   15.7,   16.3,   16.2,   20.1,   16.9,   18.2,   20.1,   20.9,   19.4,   19.7,   20.2,   19.2,   17.8,   18.0,   19.2,   18.7,   18.3,   18.0,   17.5,   16.6,   17.0,   17.8,   16.6,   14.0,   15.2,   16.1,   19.1,   17.1,   18.0,   14.6,   15.6,  999.0,  999.0,  999.0,  999.0,  999.0,  999.0,  999.0,  999.0
2004/07/31 11:00,    3.0,    1.7,    1.6,   -0.7,  999.0,  999.0,  999.0,    6.2,    7.9,   12.6,   11.4,   17.0,   10.0,   11.6,    9.3,    6.6,    7.6,    8.1,    8.8,    9.6,   10.1,   10.4,    9.6,    9.1,    8.6,    7.7,    7.1,   17.8,   17.1,   16.9,   13.2,  999.0,   12.8,   13.9,  999.0,  999.0,  999.0,  999.0,  999.0,  999.0,   14.2,   13.2,   11.9,   14.0,   14.5,   16.1,   20.1,   17.3,   16.9,   16.9,   16.8,   15.8,   14.9,   15.0,   16.0,   16.4,   14.3,   16.8,   18.3,   14.7,  999.0,  999.0,   14.1,  999.0,  999.0,  999.0,  999.0,  999.0,  999.0,  999.0
2004/07/31 11:10,    7.6,    7.9,    7.7,   12.0,    7.9,   10.2,   12.5,   12.8,   12.3,   17.2,   16.8,   16.5,   16.4,   17.7,   18.9,   16.8,   16.2,   16.6,  999.0,   18.4,  999.0,   15.4,  999.0,   25.1,   24.3,   23.5,   22.4,   15.7,   15.8,   15.3,   14.5,   14.7,   13.0,   13.8,   13.2,  999.0,  999.0,   16.8,   16.9,   17.0,   16.6,   17.4,   14.0,   12.9,   12.9,   16.4,   17.8,   17.1,   15.7,   14.1,   13.4,   13.2,   12.5,   12.3,   12.2,   12.7,   12.8,   13.3,   12.8,   13.4,   13.1,   14.4,   12.7,   10.8,   10.2,   10.0,   10.3,   11.2,   12.0,  999.0
2004/07/31 11:20,    5.0,    6.5,    8.7,   11.4,   13.9,   15.9,   16.9,   17.0,   15.9,   15.5,   15.5,   15.3,   15.4,   15.6,   16.0,   15.8,   17.7,   18.5,   18.3,   18.9,   18.5,   19.8,   20.7,   19.3,   20.7,   20.2,   18.9,   20.1,   16.6,   18.4,   18.6,   18.5,   19.5,   20.1,   20.2,   20.4,   19.2,   20.1,   19.8,   17.9,   16.4,   16.0,   16.1,   16.4,   16.3,   16.3,   15.6,   14.9,   14.6,   14.4,   14.7,   14.6,   14.9,   14.8,   14.8,   14.7,   14.8,   15.1,   15.1,   14.8,   14.4,   14.4,   14.5,   14.3,   14.8,   14.3,   14.7,   14.6,   14.7,   14.5
2004/07/31 11:30,    7.1,    6.4,   12.9,   14.1,   14.8,   17.1,   19.0,   20.2,   20.8,   20.2,   19.6,   19.3,   14.3,   14.5,   14.4,   14.9,   14.5,   18.2,   19.4,   19.4,   19.1,   17.6,   13.8,   17.4,   16.2,   20.7,   19.4,   19.1,   19.6,   18.1,   20.1,   20.4,   20.4,   21.5,   20.9,   21.1,   21.0,   20.0,   18.0,   17.6,   17.3,   16.3,  999.0,   16.8,   16.6,   16.3,   15.9,   15.6,   14.8,   14.6,   14.3,   14.2,   14.0,   13.9,   14.0,   13.9,   14.3,   14.5,   14.5,   14.8,   14.4,   15.0,   13.9,   14.1,   13.1,   12.7,   12.0,   11.8,   11.8,   12.2
2004/07/31 11:40,    9.0,    8.4,    7.9,   12.3,   13.9,   16.1,   17.7,   19.3,   19.2,   18.5,   17.9,   17.5,   15.4,   14.9,   14.8,   15.0,   16.1,   16.1,   15.4,   15.1,   15.5,   13.8,   15.9,   17.7,   16.8,   16.9,   16.4,   16.4,   11.3,   15.4,   16.7,   16.0,   14.8,   14.7,   18.5,   19.2,   18.1,   18.2,   17.8,   17.1,   17.5,   17.1,   15.0,  999.0,   15.8,   15.5,   14.5,   14.7,   14.3,   14.0,   13.8,   13.4,   13.6,   13.8,   13.8,   14.0,   14.5,   15.2,   15.9,   16.6,   17.0,   17.5,   18.6,   18.2,   18.1,   17.5,   17.1,   16.2,   16.0,  999.0
2004/07/31 11:50,    8.7,    8.4,   11.7,   13.0,   13.2,   14.0,   14.3,   12.9,   13.3,   13.4,   13.7,   15.1,   14.6,   14.5,   14.4,   14.9,   15.3,   15.5,   14.8,   15.1,   15.6,   15.5,   15.1,   15.3,   14.8,   14.9,   14.2,   14.1,   14.3,   14.5,   16.1,   14.5,   15.4,   15.6,   15.7,   15.5,   18.2,   18.3,   15.6,   19.8,   19.5,   14.2,  999.0,  999.0,   12.4,   12.8,   12.5,   13.1,   13.7,   14.3,   14.3,   13.7,   13.8,   13.5,   13.4,   12.7,   12.3,   12.3,   12.0,   13.2,   11.6,  999.0,  999.0,  999.0,  999.0,  999.0,  999.0,  999.0,  999.0,  999.0
2004/07/31 12:00,    6.0,    7.0,    8.9,   10.1,   10.8,   11.6,   12.2,   12.6,   12.9,   13.2,   13.4,   14.0,   13.9,   14.2,   14.0,   14.1,   14.5,   14.9,   15.1,   15.5,   15.6,   16.0,   16.3,   16.6,   17.3,   17.2,   16.1,   16.7,   15.4,   16.8,   15.0,   15.1,   17.3,   17.0,   16.8,   16.4,   16.2,   16.1,   16.0,   15.8,   16.0,   15.4,   15.6,   16.4,   17.5,   17.4,   17.3,   17.5,   17.3,   16.6,   16.7,   16.3,   15.9,   15.9,   15.8,   16.2,   15.8,   15.7,   15.5,   15.4,   15.6,   15.5,   15.4,   15.4,   14.9,   14.5,   14.5,   14.6,   15.0,   14.6
2004/07/31 12:10,    4.9,    5.1,    6.4,    6.5,    6.6,    8.3,    9.5,    9.8,   10.0,   10.4,   11.2,   11.4,   12.3,   12.2,   11.9,   12.7,   13.3,   15.3,   14.0,   14.2,   14.2,   15.0,   13.1,   13.4,   13.4,   15.5,   16.1,   14.4,   14.4,   13.9,   14.5,   15.6,   16.1,   17.0,   17.3,   17.4,   17.3,   17.3,   16.7,   16.2,   16.8,   16.9,   16.8,   16.9,   17.0,   16.8,   17.3,   16.7,   16.0,   16.2,   16.6,   17.1,   17.1,   17.1,   17.1,   17.1,   17.0,   17.0,   16.8,   16.7,   16.4,   16.0,   16.1,   15.7,   15.1,   14.2,   12.7,   11.9,   11.5,   13.2
2004/07/31 12:20,    6.4,    6.8,    6.9,    6.7,    7.5,    7.9,    8.1,    7.4,    9.0,    8.9,    9.2,   11.0,    8.8,    8.4,   10.4,   10.0,    9.8,   11.0,   13.5,   10.8,   11.0,   14.1,   15.0,   15.5,   15.3,   15.1,   16.2,   15.8,   15.5,   15.6,   17.3,   17.3,   18.1,   19.0,   16.4,   15.9,   16.7,   16.8,   17.4,   18.6,   17.7,   17.5,   17.8,   18.2,   18.6,   19.7,   19.1,   20.0,   19.3,   18.8,   18.4,   18.2,   17.8,   17.6,   17.5,   17.3,   17.5,   17.7,   18.2,   17.9,   17.9,   17.5,   15.7,   16.3,   15.9,   14.9,   14.9,   14.3,   13.8,   14.0
2004/07/31 12:30,    5.9,    6.4,    8.1,    9.0,    9.7,   10.8,   11.9,   13.4,   14.1,   15.1,   15.8,   16.1,   16.8,   16.9,   17.4,   16.9,   17.2,   17.1,   18.0,   18.1,   18.5,   18.0,   19.1,   18.8,   19.3,   21.4,   20.9,   21.5,   21.5,   22.0,   21.4,   21.7,   19.9,   20.1,   21.7,   21.0,   18.2,   18.4,   18.5,   16.7,   18.6,   18.9,   18.4,   18.0,   18.3,   19.4,   19.2,   19.1,   18.8,   18.3,   17.9,   17.8,   17.6,   17.5,   18.2,   18.5,   18.4,   18.6,   18.3,   19.1,   18.8,   17.6,   16.8,   16.7,   16.9,   16.1,   15.7,   15.2,   13.6,   13.3
2004/07/31 12:40,  999.0,  999.0,   15.4,   10.1,   12.2,   15.9,   19.4,   17.7,  999.0,   19.7,   20.1,   20.8,   19.3,   21.0,   19.2,   19.5,   19.7,   17.1,   18.3,   18.3,   18.6,   17.3,   18.5,   18.5,   18.3,   18.0,   19.0,   16.6,   19.0,   19.9,   18.3,   18.4,   18.9,   19.0,   20.5,   20.6,   20.1,   20.9,   18.8,   19.8,   16.3,  999.0,  999.0,   16.6,  999.0,  999.0,  999.0,  999.0,   15.4,  999.0,   14.0,   15.0,   14.8,   15.5,   11.8,   14.7,   15.1,   16.5,   19.1,   18.5,   17.9,   17.8,   17.2,   16.9,   17.2,   16.8,   15.7,   14.3,   13.9,   13.8
2004/07/31 12:50,   11.9,   11.7,   13.9,   11.4,   12.1,   14.2,   16.5,   17.5,   17.4,   16.9,   16.2,   16.7,   15.9,   15.6,   18.8,   17.1,   18.9,   14.6,   18.6,   21.6,   22.2,   21.0,   20.8,   22.4,  999.0,   15.6,   15.6,   16.7,   16.7,   15.7,   15.4,   18.7,   17.0,   18.7,   18.4,   18.7,   19.1,   19.2,   18.7,   16.5,   14.1,   15.3,   15.8,  999.0,  999.0,   17.4,   17.3,   17.5,   17.2,   17.1,   16.9,   15.8,   15.5,   15.3,   15.5,   16.7,   19.0,   19.6,   19.1,   18.3,   17.6,  999.0,  999.0,  999.0,   15.5,   15.2,   16.6,   17.2,   16.5,   14.8
2004/07/31 13:00,    7.0,    8.0,    8.9,   10.3,   12.8,   14.5,   12.7,  999.0,   12.6,   11.5,   13.0,   13.5,   13.7,   15.5,   15.2,   15.0,   14.2,   15.1,   15.0,   14.9,   15.0,   15.0,   15.6,   15.5,   16.2,   16.3,   15.6,   15.5,   15.6,   15.2,   15.9,   16.9,   17.1,   17.9,   18.3,   18.0,   18.1,   16.4,   17.8,   13.8,   15.2,   14.8,   15.6,   14.7,   16.4,   15.9,   16.2,   16.6,   16.3,   16.4,   16.6,   17.0,   17.3,   17.5,   17.5,   16.7,   16.4,   16.9,   17.4,   18.6,   17.7,   17.8,   16.2,  999.0,  999.0,  999.0,  999.0,  999.0,  999.0,  999.0
2004/07/31 13:10,    6.1,    6.7,    8.9,   11.9,   14.2,   13.8,   11.8,   12.7,   13.3,   12.8,   11.4,   11.1,   12.7,   12.6,   12.9,   15.5,   16.0,   15.0,   14.7,   15.3,   15.1,   16.2,   16.7,   16.9,   16.5,   18.6,   17.8,   17.2,   16.6,   15.8,   16.5,   16.2,   15.9,   16.8,   16.9,   17.4,   17.3,   17.5,   17.0,   16.5,   16.4,   15.8,   15.4,   16.4,   16.2,   17.6,   17.6,   17.6,   18.0,   18.2,   18.6,   17.8,   17.7,   17.6,   17.8,   17.9,   17.9,   17.9,   18.1,   17.6,   17.0,   16.8,   16.4,   16.3,   16.4,   16.3,   16.2,   15.2,   15.4,   16.3
2004/07/31 13:20,    7.1,    8.3,    8.9,   11.2,   14.0,   15.0,   13.7,   14.3,   15.9,   16.4,   16.7,   16.9,   16.9,   16.7,   15.7,   16.1,   16.3,   18.4,   17.6,   17.2,   17.1,   13.9,   14.0,   16.3,   14.7,  999.0,   11.1,   10.4,   11.1,   10.7,   13.0,   15.5,   15.7,   15.9,   15.9,   16.0,   17.4,   18.2,   18.9,   18.6,   18.5,   17.5,  999.0,  999.0,   16.9,   16.6,   16.2,   15.5,   15.1,   15.2,   15.2,   15.5,   15.7,   15.9,   16.0,   16.0,   16.4,   16.3,   16.5,   17.9,   17.2,   17.0,   17.5,   18.4,   19.0,   17.7,   17.4,   18.1,   18.0,   17.7
2004/07/31 13:30,    3.0,    4.0,    4.6,    8.2,   10.0,   12.4,   11.2,   13.9,  999.0,   17.0,   17.3,   17.6,   17.1,   17.6,   17.8,   18.1,   18.4,   18.6,   18.8,   17.7,   16.7,   16.3,   17.6,   17.1,   17.8,   19.4,   18.0,   16.9,   16.6,  999.0,  999.0,  999.0,  999.0,  999.0,  999.0,  999.0,  999.0,  999.0,  999.0,  999.0,  999.0,  999.0,  999.0,  999.0,  999.0,  999.0,  999.0,  999.0,  999.0,  999.0,  999.0,  999.0,  999.0,  999.0,  999.0,  999.0,  999.0,  999.0,  999.0,  999.0,  999.0,  999.0,  999.0,  999.0,  999.0,   17.6,   17.2,   17.0,  999.0,  999.0
2004/07/31 13:40,    7.2,    8.7,   10.8,   12.7,   15.1,   16.3,   16.1,   15.4,   15.9,   16.0,   16.2,   16.5,   16.8,   16.5,   16.1,   15.8,   15.7,   16.2,   16.5,   16.5,   16.3,   16.6,   17.1,   17.4,   17.7,   17.8,   18.2,   18.7,   19.1,   19.2,   19.2,   18.6,   18.5,   18.3,   18.2,   18.5,   18.4,   17.9,   17.7,   17.3,   17.3,   16.8,   18.3,   18.0,   19.1,   19.5,   19.4,   19.4,   19.0,   18.3,   18.1,   17.6,   17.8,   17.5,   17.1,   16.8,   16.0,   16.2,   16.1,   16.2,   15.2,   15.2,   16.2,   16.1,   16.3,   16.2,   15.8,   15.5,   15.1,   14.8
2004/07/31 13:50,   10.6,    8.8,   11.9,   12.3,   13.2,   14.2,   15.3,   15.3,   15.9,   16.1,   15.8,   16.1,   15.9,   15.8,   15.8,   16.1,   16.3,   15.8,   15.0,   14.5,   14.5,   15.7,   15.3,   14.4,   14.6,   13.8,   14.6,   15.1,   16.7,   16.8,   19.0,   18.8,   18.4,   18.5,   18.1,   17.7,   17.1,   16.4,   15.9,   16.3,   16.9,   18.3,   17.1,  999.0,   18.0,   17.8,   18.2,   18.4,   18.7,   19.2,   19.8,   19.5,   19.8,   20.2,   20.6,   20.7,   20.7,   20.6,   21.8,   21.7,   21.7,   21.1,   20.1,   18.7,   17.7,   17.0,   17.1,   17.3,   16.9,   16.4
2004/07/31 14:00,    3.0,    3.8,    1.2,    4.4,    7.0,   12.3,   14.0,   16.9,   14.1,   16.4,   17.0,   16.7,   17.7,   16.7,   17.3,   17.2,   17.1,   17.6,   16.4,   14.9,   14.8,   14.7,   13.7,   16.7,  999.0,   16.0,  999.0,  999.0,   16.5,  999.0,   14.1,  999.0,  999.0,  999.0,  999.0,  999.0,  999.0,  999.0,  999.0,  999.0,  999.0,  999.0,  999.0,  999.0,  999.0,  999.0,   17.5,   17.6,   17.5,   18.0,   18.7,   18.5,   18.4,   19.3,   20.1,   18.4,   17.7,   17.1,   15.0,   14.1,  999.0,  999.0,   19.2,   20.2,   18.5,   17.8,   16.3,   15.9,   15.9,   15.9
2004/07/31 14:10,    0.4,    0.5,    0.4,    3.6,    6.7,   11.3,   11.6,   12.4,   15.6,   16.0,   16.9,   18.2,   18.6,   17.2,   17.9,   17.5,   16.8,   17.4,   17.5,   17.1,   16.8,   16.7,   15.8,   11.7,   11.8,   13.8,   13.6,   14.1,   14.0,   13.4,  999.0,  999.0,  999.0,   17.3,   18.1,   19.2,   20.0,   19.5,   18.8,   18.6,   17.1,   21.3,   21.3,  999.0,  999.0,  999.0,  999.0,   17.7,   19.0,  999.0,  999.0,   20.7,   18.7,  999.0,  999.0,  999.0,  999.0,  999.0,  999.0,  999.0,  999.0,  999.0,  999.0,  999.0,  999.0,  999.0,   16.0,   17.5,   16.5,   18.2
2004/07/31 14:20,    0.2,    0.1,    0.9,    3.2,    6.0,   10.5,   11.1,   13.2,   16.3,   15.7,   15.9,   15.6,   15.8,   15.5,   15.1,   15.9,   15.9,   16.1,   15.6,   15.8,   16.2,   16.4,   17.1,   16.3,   15.8,   16.4,   14.1,   13.5,   14.0,   16.0,   14.4,   13.9,   17.4,   17.5,   18.2,   18.6,   18.6,   19.3,   20.8,   21.8,   21.4,   21.5,   21.0,   20.5,   20.8,   14.6,   13.4,  999.0,  999.0,  999.0,  999.0,   17.5,  999.0,  999.0,  999.0,   19.9,  999.0,  999.0,  999.0,  999.0,  999.0,  999.0,   21.6,  999.0,   19.8,   18.6,   15.8,   19.9,   16.9,   17.8
2004/07/31 14:30,    0.7,  999.0,    0.4,    5.0,    7.3,   12.1,   10.5,   14.6,   15.4,   15.1,   15.4,   15.7,   15.9,   15.9,   16.8,   15.8,   15.8,   16.1,   16.2,   15.9,   15.4,   15.8,   16.0,   16.3,   16.6,   17.0,   17.0,   17.0,   17.2,   18.9,   19.2,   19.7,   19.3,   19.6,   20.1,   19.8,   21.2,  999.0,  999.0,   21.5,   21.0,   21.0,   20.9,   20.9,  999.0,   18.6,   18.8,   18.7,  999.0,  999.0,   18.1,   19.4,   20.5,  999.0,  999.0,  999.0,  999.0,  999.0,  999.0,  999.0,  999.0,  999.0,  999.0,  999.0,  999.0,  999.0,  999.0,  999.0,   16.1,  999.0
2004/07/31 14:40,    0.2,    0.3,    0.4,    7.0,    8.4,   12.0,   12.3,   15.5,   16.6,   16.8,   16.8,   16.1,   14.7,   14.4,   14.7,   15.2,   15.1,   14.5,   14.8,   13.9,   14.3,   14.4,   14.7,   14.1,   13.6,   15.3,   16.7,   16.3,   17.2,   17.9,   17.2,   16.7,   18.1,   18.2,   18.9,   19.2,   20.5,   19.8,  999.0,   21.4,   21.5,   20.8,   20.6,   20.7,   20.4,  999.0,  999.0,   19.6,  999.0,   21.7,   22.1,   18.6,   20.1,   20.4,  999.0,  999.0,  999.0,  999.0,  999.0,  999.0,  999.0,  999.0,  999.0,  999.0,  999.0,  999.0,  999.0,  999.0,  999.0,  999.0
2004/07/31 14:50,  999.0,    0.5,    1.1,    4.1,    7.3,   11.6,   12.3,   13.8,   13.4,   14.4,   14.7,   15.0,   14.1,   14.7,   14.4,   14.4,   14.7,   14.7,   14.3,   14.4,   13.8,   13.0,   13.1,   11.7,   12.5,   12.0,   12.3,   12.6,   12.1,   14.2,   15.1,   15.4,   16.2,   17.8,   19.0,   18.2,   18.9,   19.1,   19.6,   20.4,   20.4,  999.0,  999.0,  999.0,  999.0,   21.4,   20.5,   21.1,   19.5,   19.1,   19.7,   21.0,  999.0,  999.0,  999.0,   18.0,  999.0,  999.0,  999.0,  999.0,  999.0,  999.0,  999.0,  999.0,  999.0,  999.0,  999.0,  999.0,  999.0,  999.0
2004/07/31 15:00,    6.0,    7.9,   10.3,    8.9,    9.3,   11.5,   13.1,   12.7,   12.5,   12.4,   13.7,   13.4,   13.3,   13.1,   11.9,   12.0,   12.4,   11.8,   13.9,   11.2,   11.9,   11.3,   12.3,   11.4,   12.3,   12.7,  999.0,  999.0,   15.3,   13.9,   12.9,   13.7,   13.8,   15.9,   15.8,   15.8,   16.3,   18.1,   18.9,   19.3,   20.7,  999.0,  999.0,  999.0,  999.0,  999.0,  999.0,   18.1,   18.5,   17.9,   17.4,   17.2,  999.0,  999.0,  999.0,  999.0,  999.0,  999.0,  999.0,  999.0,  999.0,  999.0,  999.0,  999.0,  999.0,  999.0,  999.0,  999.0,  999.0,  999.0
2004/07/31 15:10,    4.5,    6.1,    6.9,    6.9,    8.8,    7.9,   10.3,   10.5,   11.3,   11.5,   12.8,   12.6,   12.0,   11.9,   13.7,   14.3,   14.8,   15.4,   15.3,   13.9,   13.8,   15.4,   15.3,   13.7,   14.4,   15.2,   14.7,   14.1,   13.8,   13.6,   13.3,   13.6,   12.7,   14.5,   18.0,   17.6,   19.4,   20.1,   20.5,   18.7,  999.0,  999.0,  999.0,  999.0,  999.0,  999.0,  999.0,   19.0,  999.0,   19.9,  999.0,  999.0,  999.0,  999.0,  999.0,  999.0,  999.0,  999.0,  999.0,  999.0,  999.0,  999.0,  999.0,  999.0,  999.0,  999.0,  999.0,  999.0,  999.0,   18.7
2004/07/31 15:20,    7.4,    3.4,    6.7,    8.1,    9.2,    7.0,    7.2,   10.7,   10.6,   11.1,   11.6,   13.0,  999.0,   15.6,   15.1,   15.1,   12.5,   13.3,    9.3,  999.0,   13.6,   13.5,   12.9,   13.2,   13.8,   15.4,   15.3,   14.9,   16.0,   16.7,   17.8,   17.4,   16.7,   16.8,   18.5,   20.3,   20.8,   18.7,   14.2,  999.0,  999.0,  999.0,  999.0,  999.0,  999.0,  999.0,  999.0,  999.0,  999.0,  999.0,  999.0,  999.0,  999.0,  999.0,  999.0,  999.0,  999.0,  999.0,  999.0,  999.0,  999.0,  999.0,  999.0,  999.0,  999.0,  999.0,  999.0,  999.0,  999.0,  999.0
2004/07/31 15:30,  999.0,    9.1,  999.0,    8.5,    9.5,    8.7,   10.1,   10.8,   12.2,   14.4,   14.0,   12.6,   14.8,   14.7,   14.4,   14.9,   15.6,   13.5,   13.7,   16.3,   16.8,   16.7,   19.5,   17.0,   17.6,   18.5,   18.5,   18.3,   16.1,   17.3,   20.3,   19.2,   19.1,   19.4,   19.3,   20.7,   20.8,   17.2,   17.2,   17.3,   15.2,   14.5,  999.0,  999.0,  999.0,   13.1,  999.0,   14.2,  999.0,   15.9,   17.4,  999.0,  999.0,  999.0,  999.0,  999.0,  999.0,  999.0,  999.0,  999.0,  999.0,  999.0,  999.0,  999.0,  999.0,  999.0,  999.0,  999.0,  999.0,  999.0
2004/07/31 15:40,    0.5,  999.0,    0.5,    2.6,    5.4,    6.9,    7.2,   10.1,   15.1,   12.4,   15.2,   15.4,   17.3,   12.2,   12.5,   12.0,   12.9,   16.0,   16.1,   15.4,   14.6,   15.0,   17.7,   16.4,   20.1,   18.4,   19.2,   19.4,   19.4,   20.4,   20.1,   19.4,   19.2,   19.0,   18.8,   18.3,   18.7,   18.1,   17.8,   17.2,   17.6,   13.0,  999.0,  999.0,  999.0,   16.7,   16.0,   15.9,   16.6,  999.0,  999.0,  999.0,   16.5,  999.0,  999.0,  999.0,  999.0,  999.0,  999.0,  999.0,  999.0,  999.0,  999.0,  999.0,  999.0,  999.0,  999.0,  999.0,  999.0,  999.0
2004/07/31 15:50,    0.2,   -0.1,    0.3,    2.2,    1.1,    6.8,    9.8,    9.9,   12.2,   14.5,   13.3,   13.2,   14.4,   15.2,   14.8,   15.7,   16.5,   16.9,   17.2,   16.7,   17.4,   16.7,   16.8,   17.3,   18.6,   18.7,   18.8,   19.1,   18.3,   19.6,   20.1,   19.9,   19.9,   20.4,   20.6,  999.0,   20.3,   19.9,   20.8,   20.0,  999.0,  999.0,  999.0,  999.0,   17.4,  999.0,  999.0,  999.0,  999.0,   19.0,   18.2,  999.0,  999.0,  999.0,  999.0,  999.0,  999.0,  999.0,  999.0,  999.0,  999.0,  999.0,  999.0,  999.0,  999.0,  999.0,  999.0,  999.0,  999.0,  999.0
2004/07/31 16:00,    0.4,   -0.0,    1.1,    2.3,    3.3,    7.3,    8.5,   10.4,   12.1,   13.2,   13.8,   14.6,   14.6,   15.8,   16.1,   16.0,   15.9,   16.5,   16.4,   16.8,   16.2,   16.5,   16.9,   17.5,   18.4,   18.2,   17.6,   17.4,   19.1,   19.1,   18.3,   17.1,   17.6,   18.6,   18.0,   18.9,   18.3,  999.0,   18.4,   18.6,  999.0,  999.0,  999.0,   18.5,   19.2,   17.9,   16.6,   16.8,   17.9,   17.0,   16.7,  999.0,  999.0,  999.0,  999.0,  999.0,  999.0,  999.0,  999.0,  999.0,  999.0,  999.0,  999.0,  999.0,  999.0,  999.0,  999.0,  999.0,  999.0,  999.0
2004/07/31 16:10,    0.3,    0.2,    0.8,    1.3,    3.2,    6.2,    9.1,   10.3,    9.8,   11.9,   12.0,   12.0,   12.0,   13.2,   14.9,   15.5,   15.9,   16.2,   15.8,   16.0,   16.5,   17.1,   16.0,   16.2,   17.6,   17.7,   17.5,   17.5,   18.2,   19.2,   19.3,   19.0,   19.6,   19.3,   19.8,   19.5,  999.0,  999.0,  999.0,  999.0,  999.0,  999.0,  999.0,  999.0,  999.0,  999.0,  999.0,  999.0,  999.0,   17.4,  999.0,  999.0,  999.0,  999.0,  999.0,  999.0,  999.0,  999.0,  999.0,  999.0,  999.0,  999.0,  999.0,  999.0,  999.0,  999.0,  999.0,  999.0,  999.0,  999.0
2004/07/31 16:20,    0.1,  999.0,  999.0,    2.1,    4.3,    9.7,    8.6,   10.5,   12.2,   12.0,   13.3,   12.8,   13.9,   14.7,   16.2,   16.9,   15.2,   15.8,   15.8,   15.4,   15.7,   14.7,   15.4,   14.0,   15.8,   16.4,   16.3,   15.8,   17.1,   18.0,   17.5,   17.3,   18.7,   18.5,   19.8,  999.0,  999.0,  999.0,  999.0,  999.0,  999.0,  999.0,  999.0,  999.0,  999.0,  999.0,  999.0,  999.0,   16.7,   16.1,   16.2,  999.0,  999.0,  999.0,  999.0,  999.0,  999.0,  999.0,  999.0,  999.0,  999.0,  999.0,  999.0,  999.0,  999.0,  999.0,  999.0,  999.0,  999.0,  999.0
2004/07/31 16:30,    0.1,    0.2,    0.5,    0.3,    2.3,    6.3,   10.1,   10.4,   11.8,   12.1,   13.3,   15.5,   15.6,   15.4,   15.3,   15.6,   16.5,   17.0,   16.8,   16.4,   17.4,   17.5,   17.4,   17.6,   17.3,   17.5,   19.0,   19.3,   19.4,   19.7,   19.5,  999.0,   19.8,  999.0,   20.6,  999.0,   21.5,   20.7,   20.1,  999.0,   21.1,  999.0,  999.0,  999.0,  999.0,  999.0,  999.0,  999.0,  999.0,  999.0,  999.0,  999.0,  999.0,  999.0,  999.0,  999.0,  999.0,  999.0,  999.0,  999.0,  999.0,  999.0,  999.0,  999.0,  999.0,  999.0,  999.0,  999.0,  999.0,  999.0
2004/07/31 16:40,    0.2,    0.1,    0.5,    1.2,    2.7,    6.2,    9.4,   10.4,   11.1,   13.6,   14.0,   14.4,   14.4,   15.3,   15.6,   15.3,   15.5,   15.9,   15.8,   16.0,   16.8,   15.9,   17.7,   17.6,   18.6,   18.2,   18.8,   19.9,   20.5,   21.3,   21.3,   22.1,   20.4,   20.7,   20.7,   21.4,   22.1,   21.2,   21.2,   21.2,   20.6,   20.5,  999.0,   18.2,  999.0,   17.2,   16.9,   17.0,  999.0,  999.0,  999.0,  999.0,  999.0,  999.0,  999.0,  999.0,  999.0,  999.0,  999.0,  999.0,  999.0,  999.0,  999.0,  999.0,  999.0,  999.0,  999.0,  999.0,  999.0,  999.0
2004/07/31 16:50,    0.1,    0.2,    0.0,    0.4,  999.0,    3.9,    9.3,    9.7,   12.9,   11.6,   12.4,   12.5,   15.2,   15.7,   16.8,   15.7,   16.5,   16.2,   16.3,   16.7,   16.8,   17.5,   17.6,   18.3,   18.7,   18.7,   18.9,   19.5,   19.0,   20.0,   20.6,  999.0,  999.0,   21.4,  999.0,  999.0,  999.0,  999.0,  999.0,   22.4,  999.0,  999.0,  999.0,  999.0,  999.0,  999.0,  999.0,  999.0,  999.0,  999.0,  999.0,  999.0,  999.0,  999.0,  999.0,  999.0,  999.0,  999.0,  999.0,  999.0,  999.0,  999.0,  999.0,  999.0,  999.0,  999.0,  999.0,  999.0,  999.0,  999.0
2004/07/31 17:00,  999.0,  999.0,    0.1,  999.0,  999.0,    5.3,   10.6,   10.8,   12.2,   13.9,   14.2,   14.9,   14.5,   14.7,   15.9,   16.1,   16.5,   17.1,   17.7,   18.0,   18.1,   18.4,   18.0,   18.5,   18.7,   17.7,   17.2,   17.5,   18.0,   18.1,   18.3,   18.7,   18.1,   19.3,   21.5,   20.3,   21.5,   20.4,   19.5,   19.9,   18.9,   19.2,   20.7,   20.1,  999.0,   18.7,   18.4,  999.0,  999.0,  999.0,  999.0,  999.0,  999.0,  999.0,  999.0,  999.0,  999.0,  999.0,  999.0,  999.0,  999.0,  999.0,  999.0,  999.0,  999.0,  999.0,  999.0,  999.0,  999.0,  999.0
2004/07/31 17:10,    0.2,    0.3,    0.6,    0.2,  999.0,    8.1,    9.8,   11.1,   12.5,   12.9,   13.2,   13.3,   14.6,   16.6,   15.5,   15.8,   16.1,   16.7,   17.3,   17.3,   17.7,   17.9,   19.0,   18.4,   17.6,   18.3,   19.5,   18.8,  999.0,   18.6,   19.4,  999.0,  999.0,  999.0,  999.0,  999.0,  999.0,  999.0,   19.9,   20.5,   18.1,   19.9,   19.4,   18.8,  999.0,  999.0,  999.0,  999.0,  999.0,  999.0,  999.0,  999.0,  999.0,  999.0,  999.0,  999.0,  999.0,  999.0,  999.0,  999.0,  999.0,  999.0,  999.0,  999.0,  999.0,  999.0,  999.0,  999.0,  999.0,  999.0
2004/07/31 17:20,    0.1,    0.1,  999.0,    0.4,  999.0,    6.4,    9.6,   12.0,   12.5,   13.3,   14.1,   14.2,   15.1,   16.0,   16.6,   16.9,   17.2,   17.4,   17.2,   17.4,   17.5,   17.2,   18.0,   18.0,   18.1,   17.9,   17.1,   17.8,   16.9,   17.2,   17.6,   18.6,   17.7,  999.0,  999.0,  999.0,  999.0,   18.9,   18.3,   18.9,   19.5,   19.0,   17.9,   18.2,   17.1,  999.0,  999.0,  999.0,  999.0,  999.0,  999.0,  999.0,  999.0,  999.0,  999.0,  999.0,  999.0,    9.0,  999.0,  999.0,  999.0,  999.0,  999.0,  999.0,  999.0,  999.0,  999.0,  999.0,  999.0,  999.0
2004/07/31 17:30,    0.2,    0.1,    0.6,    1.4,  999.0,    8.9,   10.9,   11.3,   11.4,   12.0,   13.4,   14.6,   15.2,   15.6,   15.3,   15.8,   16.3,   17.0,   16.8,   17.1,   17.7,   18.1,   18.8,   18.5,   18.7,   19.1,   18.6,   18.3,   18.0,   19.5,   19.1,   18.7,   18.4,  999.0,   18.7,   19.8,  999.0,   19.0,   20.3,   18.0,   18.0,   18.0,   17.4,   18.1,  999.0,  999.0,  999.0,  999.0,  999.0,  999.0,  999.0,  999.0,  999.0,  999.0,  999.0,  999.0,  999.0,  999.0,  999.0,  999.0,  999.0,  999.0,  999.0,  999.0,  999.0,  999.0,  999.0,  999.0,  999.0,  999.0
2004/07/31 17:40,  999.0,  999.0,  999.0,    0.8,  999.0,    8.6,   11.1,   12.8,   13.3,   14.0,   14.4,   15.0,   15.9,   16.3,   16.8,   16.7,   16.7,   17.1,   16.6,   17.1,   17.9,   18.1,   18.2,   18.2,   17.8,   17.9,   18.3,   17.5,   18.2,   19.0,   18.5,   18.2,  999.0,  999.0,   19.0,   20.1,   17.9,   19.5,   20.1,   19.2,   18.2,   18.2,  999.0,  999.0,   16.7,   17.6,  999.0,  999.0,  999.0,  999.0,  999.0,   19.1,  999.0,  999.0,  999.0,  999.0,  999.0,  999.0,  999.0,  999.0,  999.0,  999.0,  999.0,  999.0,  999.0,  999.0,  999.0,  999.0,  999.0,  999.0
2004/07/31 17:50,  999.0,  999.0,    2.8,    4.2,    7.2,    7.6,   10.3,   11.6,   13.1,   15.1,   15.9,   14.8,   15.1,   15.6,   16.1,   16.3,   16.8,   17.7,   17.3,   17.7,   18.7,   19.2,   18.9,   19.9,   19.5,   18.7,   19.9,   19.9,   19.9,   19.1,   19.7,   18.1,   18.2,   19.6,  999.0,   18.5,   19.0,   20.3,   21.0,   19.3,   19.5,   19.8,  999.0,  999.0,   18.1,  999.0,  999.0,   19.3,   18.6,  999.0,   19.6,   18.7,  999.0,  999.0,  999.0,  999.0,  999.0,  999.0,  999.0,  999.0,  999.0,  999.0,  999.0,  999.0,  999.0,  999.0,  999.0,  999.0,  999.0,  999.0
2004/07/31 18:00,    0.0,    0.1,   -0.4,    3.1,    2.9,    7.2,   10.8,    9.9,   11.0,   14.0,   14.1,   13.8,   15.7,   15.7,   16.3,   16.6,   17.0,   17.7,   18.1,   18.6,   19.1,   19.5,   19.7,   19.8,   19.5,   19.6,   18.9,   18.8,   19.1,   19.2,   19.0,   19.6,   19.7,   19.8,   19.1,   18.9,   18.8,   18.8,   18.8,   18.8,   18.5,   18.3,   17.4,   17.5,   18.5,   16.5,  999.0,   17.1,   16.2,   17.2,   18.6,   17.6,  999.0,  999.0,  999.0,  999.0,  999.0,  999.0,  999.0,  999.0,  999.0,  999.0,  999.0,  999.0,  999.0,  999.0,  999.0,  999.0,  999.0,  999.0
2004/07/31 18:10,  999.0,  999.0,  999.0,    2.0,    6.0,    6.4,   10.6,   12.3,   11.7,   14.4,   14.6,   15.0,   15.6,   15.9,   16.6,   16.8,   17.1,   17.2,   17.6,   18.2,   18.6,   18.7,   18.7,   18.5,   18.7,   18.8,   19.3,   18.8,   19.2,   19.1,   18.2,   18.4,   17.3,   16.8,   16.5,   16.2,   16.8,   16.6,   16.9,   17.0,   17.0,   16.9,   16.5,   16.3,   18.7,  999.0,  999.0,  999.0,  999.0,   17.2,   16.4,  999.0,  999.0,  999.0,  999.0,  999.0,  999.0,  999.0,  999.0,  999.0,  999.0,  999.0,  999.0,  999.0,  999.0,  999.0,  999.0,  999.0,  999.0,  999.0
2004/07/31 18:20,    0.0,    0.6,    1.1,    1.2,    3.0,    7.9,    8.8,   11.9,   12.5,   13.8,   14.7,   15.2,   16.9,   17.2,   17.0,   17.0,   16.8,   16.7,   16.8,   17.1,   17.5,   16.9,   17.3,   17.8,   18.1,   17.2,   17.5,   18.7,   19.1,   18.3,   17.8,   17.8,   18.4,   18.1,   17.4,   17.7,   19.0,   18.9,   18.9,   18.2,   18.0,   18.1,   17.5,  999.0,   17.5,   18.4,  999.0,  999.0,  999.0,   17.7,   18.0,  999.0,  999.0,  999.0,  999.0,  999.0,  999.0,  999.0,  999.0,  999.0,  999.0,  999.0,  999.0,  999.0,  999.0,  999.0,  999.0,  999.0,  999.0,  999.0
2004/07/31 18:30,    0.2,  999.0,    0.1,    2.5,    3.2,    8.8,   10.5,   11.6,   12.8,   13.3,   14.0,   14.6,   16.3,   16.6,   16.6,   17.5,   17.1,   16.9,   17.6,   17.8,   17.8,   18.3,   18.8,   18.5,   18.4,   18.3,   18.2,   17.4,   19.0,   18.3,   17.8,   17.6,   17.1,   17.0,  999.0,  999.0,   17.8,   17.2,   17.6,   16.5,   16.6,   15.8,   17.1,   15.4,  999.0,  999.0,  999.0,  999.0,  999.0,  999.0,  999.0,  999.0,  999.0,  999.0,  999.0,  999.0,  999.0,  999.0,  999.0,  999.0,  999.0,    9.5,  999.0,  999.0,  999.0,  999.0,  999.0,  999.0,  999.0,  999.0
2004/07/31 18:40,   -0.0,    0.3,   -0.4,    1.0,    0.3,   10.8,   12.5,   12.3,   13.2,   14.3,   14.7,   15.0,   15.7,   15.5,   16.0,   16.3,   16.6,   16.4,   16.4,   17.7,   18.1,   18.8,   18.7,   18.7,   18.4,   18.1,   18.2,   19.2,   18.9,   18.5,   18.1,   17.2,   16.2,   16.5,   15.9,   16.3,   17.1,  999.0,   17.1,   16.8,   18.0,   17.5,   17.6,   18.3,  999.0,  999.0,  999.0,  999.0,  999.0,  999.0,  999.0,  999.0,  999.0,  999.0,  999.0,  999.0,  999.0,  999.0,  999.0,  999.0,  999.0,  999.0,  999.0,  999.0,  999.0,  999.0,  999.0,  999.0,  999.0,  999.0
2004/07/31 18:50,  999.0,   -0.8,    0.2,    1.9,    3.6,    9.0,   12.2,   12.8,   13.2,   14.1,   14.5,   14.9,   16.1,   16.2,   16.2,   16.4,   16.8,   17.0,   16.6,   16.7,   17.3,   18.5,   17.5,   18.1,   18.2,   17.9,   17.9,   17.7,   18.1,   18.0,   18.0,   17.4,   17.5,   18.4,  999.0,   17.5,   17.4,   18.1,   18.3,   17.0,   17.4,   16.9,   16.8,   17.9,   16.3,  999.0,  999.0,  999.0,  999.0,  999.0,  999.0,  999.0,  999.0,  999.0,  999.0,  999.0,  999.0,  999.0,  999.0,  999.0,  999.0,  999.0,  999.0,  999.0,  999.0,  999.0,  999.0,  999.0,  999.0,  999.0
2004/07/31 19:00,  999.0,    0.0,    1.4,    1.4,    4.4,    8.8,   11.2,   11.5,   12.8,   14.3,   15.1,   14.5,   16.2,   17.1,   17.5,   17.6,   17.7,   18.3,   18.3,   18.5,   18.9,   18.9,   19.3,   19.2,   19.0,   18.5,   18.5,   19.3,   19.3,   19.1,   19.1,   18.0,   18.2,  999.0,  999.0,  999.0,  999.0,   19.1,   18.5,   17.9,   17.0,   16.4,   17.3,   16.6,   16.7,  999.0,  999.0,  999.0,  999.0,  999.0,  999.0,   17.1,  999.0,  999.0,  999.0,  999.0,  999.0,  999.0,  999.0,  999.0,  999.0,  999.0,  999.0,  999.0,  999.0,  999.0,  999.0,  999.0,  999.0,  999.0
2004/07/31 19:10,  999.0,  999.0,  999.0,  999.0,    7.6,    9.0,   11.5,   11.6,   13.2,   14.0,   14.9,   15.5,   16.3,   16.9,   16.6,   16.6,   16.9,   16.7,   17.0,   17.3,   17.5,   16.9,   17.4,   19.0,   19.1,   19.2,   20.1,   20.6,  999.0,   19.4,   18.5,   18.9,   18.8,  999.0,  999.0,  999.0,   17.1,   17.8,   18.6,   17.7,   16.8,   18.2,   17.9,   17.1,   16.5,   16.2,   16.3,   15.8,   16.2,   16.4,  999.0,  999.0,  999.0,  999.0,  999.0,  999.0,  999.0,  999.0,  999.0,  999.0,  999.0,  999.0,  999.0,  999.0,  999.0,  999.0,  999.0,  999.0,  999.0,  999.0
2004/07/31 19:20,  999.0,  999.0,  999.0,    2.2,    5.3,    9.6,   11.6,   13.8,   15.0,   15.4,   15.9,   15.9,   16.2,   16.0,   15.5,   16.6,   16.7,   17.2,   17.8,   17.8,   18.6,   18.8,   18.8,   19.5,   18.5,   18.4,   18.1,   18.9,   19.8,   20.2,   18.6,   18.9,   18.5,  999.0,  999.0,  999.0,  999.0,  999.0,   16.0,   16.4,   15.2,   14.7,  999.0,   17.6,   16.5,   15.6,   16.0,   13.8,   13.2,   14.1,   15.0,  999.0,  999.0,  999.0,  999.0,  999.0,  999.0,  999.0,  999.0,  999.0,  999.0,  999.0,  999.0,  999.0,  999.0,  999.0,  999.0,  999.0,  999.0,  999.0
2004/07/31 19:30,  999.0,  999.0,  999.0,    5.5,    6.1,   10.6,   13.1,   13.3,   13.5,   14.1,   14.9,   15.2,   15.5,   15.6,   16.2,   16.4,   16.8,   17.9,   18.0,   18.2,   18.2,   18.5,   18.9,   18.6,   18.8,   18.8,   18.8,   19.1,   18.3,   18.3,   17.4,   17.5,   18.8,  999.0,  999.0,   16.9,   16.8,   17.0,   16.6,   16.7,   17.1,   16.6,   17.3,   16.9,   16.1,   16.5,   16.0,   16.3,   16.1,   15.6,   15.6,   15.7,  999.0,  999.0,   13.9,  999.0,  999.0,  999.0,  999.0,  999.0,  999.0,  999.0,  999.0,  999.0,  999.0,  999.0,  999.0,  999.0,  999.0,  999.0
2004/07/31 19:40,  999.0,  999.0,  999.0,    4.2,    4.6,    9.7,   11.9,   12.7,   14.4,   13.5,   13.4,   14.4,   14.7,   15.1,   15.9,   16.0,   16.3,   16.7,   17.1,   17.0,   16.9,   17.0,   17.1,   17.5,   17.6,   17.1,   17.6,   18.2,   17.6,   18.0,   17.6,   17.4,   17.1,   16.0,  999.0,   16.5,   16.9,  999.0,   16.3,  999.0,  999.0,  999.0,   17.9,  999.0,   16.7,   16.0,  999.0,  999.0,  999.0,   14.3,   15.6,  999.0,   14.6,   13.8,   15.3,   14.2,  999.0,  999.0,  999.0,  999.0,  999.0,  999.0,  999.0,  999.0,  999.0,  999.0,  999.0,  999.0,  999.0,  999.0
2004/07/31 19:50,  999.0,  999.0,  999.0,    2.3,    4.2,   10.1,   12.7,   13.5,   13.8,   15.4,   15.0,   15.1,   14.0,   15.0,   15.3,   16.1,   16.3,   16.3,   17.0,   17.6,   17.7,   18.2,   18.2,   17.6,   17.7,   17.5,   18.0,   17.7,   17.5,   17.6,   17.3,   16.5,   15.9,   15.6,  999.0,  999.0,  999.0,  999.0,   15.0,   18.4,  999.0,  999.0,   17.3,   17.0,  999.0,  999.0,  999.0,  999.0,  999.0,  999.0,  999.0,  999.0,  999.0,  999.0,  999.0,  999.0,  999.0,  999.0,  999.0,  999.0,  999.0,  999.0,  999.0,  999.0,  999.0,  999.0,  999.0,  999.0,  999.0,  999.0
2004/07/31 20:00,  999.0,  999.0,    3.6,    4.9,    7.0,    9.5,   12.3,   13.2,   13.9,   14.7,   14.1,   13.7,   13.9,   14.5,   15.6,   16.3,   16.5,   16.7,   16.9,   17.5,   17.8,   18.1,   18.1,   18.0,   18.0,   17.8,   17.8,   17.1,   17.3,   16.6,   15.9,   16.1,   17.3,  999.0,  999.0,  999.0,   16.9,   15.9,   17.3,  999.0,  999.0,   15.4,   14.8,   15.6,   16.4,  999.0,  999.0,  999.0,  999.0,  999.0,  999.0,   15.8,   15.3,  999.0,  999.0,  999.0,   15.5,   14.7,  999.0,  999.0,  999.0,  999.0,  999.0,  999.0,  999.0,  999.0,  999.0,  999.0,  999.0,  999.0
2004/07/31 20:10,  999.0,  999.0,  999.0,    6.2,    7.1,   10.1,   13.0,   13.2,   14.5,   15.6,   15.0,   14.9,   15.1,   14.7,   15.5,   15.9,   15.2,   16.1,   16.1,   15.9,   15.5,   15.4,   15.9,   15.9,   16.8,   16.2,   16.1,   16.5,   16.8,   17.4,   17.6,   17.7,   16.6,   17.1,  999.0,  999.0,   15.5,   14.7,  999.0,  999.0,  999.0,  999.0,   16.4,  999.0,  999.0,  999.0,   19.6,   17.9,   18.5,   16.2,   17.5,   14.6,   15.2,  999.0,  999.0,  999.0,   15.2,   15.5,   14.3,  999.0,  999.0,  999.0,  999.0,  999.0,  999.0,  999.0,  999.0,  999.0,  999.0,  999.0
2004/07/31 20:20,  999.0,  999.0,    3.5,    5.6,    6.9,   10.2,   11.2,   13.3,   14.4,   15.3,   15.4,   16.3,   16.5,   16.7,   16.5,   16.5,   16.9,   17.6,   18.1,   18.0,   17.8,   17.8,   17.3,   17.3,   17.4,   17.7,   18.1,   18.3,   18.5,   18.2,   18.0,   18.3,   19.2,  999.0,  999.0,   16.2,   16.3,  999.0,  999.0,  999.0,  999.0,  999.0,  999.0,  999.0,  999.0,  999.0,  999.0,  999.0,  999.0,   17.4,   17.7,  999.0,  999.0,  999.0,  999.0,   16.3,   15.8,   16.5,  999.0,  999.0,  999.0,  999.0,  999.0,  999.0,  999.0,  999.0,  999.0,  999.0,  999.0,  999.0
2004/07/31 20:30,  999.0,  999.0,    4.5,    6.6,    6.4,   10.3,   12.4,   13.0,   12.9,   14.5,   15.0,   15.6,   16.8,   16.3,   16.1,   16.4,   17.0,   17.6,   17.7,   17.8,   17.6,   17.9,   18.0,   18.0,   18.2,   18.2,   16.7,   14.9,   14.2,   16.3,   17.6,   18.0,   17.8,  999.0,  999.0,  999.0,  999.0,  999.0,  999.0,  999.0,  999.0,  999.0,  999.0,  999.0,  999.0,  999.0,  999.0,   14.3,  999.0,  999.0,  999.0,  999.0,  999.0,  999.0,  999.0,  999.0,  999.0,  999.0,  999.0,  999.0,  999.0,  999.0,  999.0,  999.0,  999.0,  999.0,  999.0,  999.0,  999.0,  999.0
2004/07/31 20:40,    0.2,    0.1,    1.2,    3.2,    6.0,    9.5,   11.1,   12.6,   13.7,   15.3,   15.1,   15.3,   15.3,   15.7,   16.5,   16.1,   15.9,   16.1,   17.2,   17.8,   17.8,   18.0,   17.8,   17.9,   18.1,   18.3,   18.2,   17.8,   14.9,   18.3,   19.1,   19.2,   19.0,   18.7,  999.0,  999.0,  999.0,  999.0,  999.0,  999.0,  999.0,  999.0,   17.4,  999.0,  999.0,   18.2,   19.0,   19.4,  999.0,   19.2,   19.5,  999.0,  999.0,  999.0,  999.0,  999.0,  999.0,  999.0,  999.0,  999.0,  999.0,  999.0,  999.0,  999.0,  999.0,  999.0,  999.0,  999.0,  999.0,  999.0
2004/07/31 20:50,  999.0,  999.0,  999.0,    4.2,    5.9,   10.6,   11.8,   13.1,   13.9,   13.9,   14.9,   15.0,   15.1,   15.7,   15.8,   16.5,   16.6,   17.3,   17.6,   17.8,   18.3,   18.6,   19.2,   19.5,   19.6,   19.5,   19.5,  999.0,   16.6,   19.7,   19.2,   19.5,   19.7,   19.2,  999.0,   17.7,  999.0,  999.0,  999.0,  999.0,  999.0,  999.0,  999.0,  999.0,   20.2,   19.2,   18.1,  999.0,  999.0,  999.0,  999.0,  999.0,  999.0,  999.0,  999.0,  999.0,  999.0,   16.8,   17.2,  999.0,  999.0,  999.0,  999.0,  999.0,  999.0,  999.0,  999.0,  999.0,  999.0,  999.0
2004/07/31 21:00,  999.0,  999.0,  999.0,    6.3,    6.9,   10.6,   12.4,   14.6,   15.4,   15.3,   15.8,   15.1,   15.8,   15.5,   16.4,   17.1,   16.7,   17.1,   17.6,   17.4,   18.3,   18.4,   18.6,   18.6,   19.3,   19.4,   19.1,  999.0,  999.0,  999.0,   15.8,   18.0,   18.7,   19.6,  999.0,  999.0,   18.0,  999.0,  999.0,  999.0,  999.0,  999.0,   17.9,   19.0,   18.7,   19.5,   19.5,  999.0,  999.0,  999.0,  999.0,  999.0,  999.0,  999.0,  999.0,  999.0,  999.0,  999.0,  999.0,  999.0,  999.0,  999.0,  999.0,  999.0,  999.0,  999.0,  999.0,  999.0,  999.0,  999.0
2004/07/31 21:10,  999.0,  999.0,  999.0,    4.7,    5.0,   12.5,   14.0,   14.6,   14.1,   15.9,   16.2,   16.4,   15.9,   16.1,   16.6,   17.1,   17.2,   17.2,   17.6,   18.1,   18.5,   18.5,   18.8,   18.6,   19.0,   18.8,   18.5,   18.2,   19.4,   18.9,   15.9,   16.0,   17.8,   19.6,  999.0,  999.0,  999.0,  999.0,  999.0,  999.0,  999.0,  999.0,   17.3,   16.7,   17.7,   18.1,   19.3,  999.0,  999.0,  999.0,  999.0,  999.0,  999.0,  999.0,  999.0,  999.0,  999.0,  999.0,  999.0,  999.0,  999.0,  999.0,  999.0,  999.0,  999.0,  999.0,  999.0,  999.0,  999.0,  999.0
2004/07/31 21:20,  999.0,  999.0,    5.1,    5.6,    8.2,   11.2,   13.4,   13.0,   13.9,   14.9,   16.1,   16.4,   15.9,   16.1,   16.5,   16.7,   17.6,   18.8,   18.3,   18.7,   18.7,   18.6,   18.8,   19.1,   19.0,   18.7,   18.6,   17.8,   17.4,  999.0,   15.5,   16.8,   18.0,  999.0,  999.0,  999.0,  999.0,  999.0,  999.0,  999.0,  999.0,  999.0,  999.0,  999.0,  999.0,  999.0,  999.0,  999.0,  999.0,  999.0,  999.0,  999.0,  999.0,  999.0,  999.0,  999.0,  999.0,  999.0,  999.0,  999.0,  999.0,  999.0,  999.0,  999.0,  999.0,  999.0,  999.0,  999.0,  999.0,  999.0
2004/07/31 21:30,    0.4,    0.6,    2.1,    4.9,    6.4,   10.7,   12.7,   14.0,   14.2,   14.9,   15.3,   15.5,   15.6,   16.3,   16.6,   16.2,   16.7,   17.4,   17.4,   18.1,   18.4,   18.6,   18.2,   18.7,   18.6,   18.2,   18.3,   19.0,   18.1,   17.6,   17.1,   17.2,   17.7,  999.0,  999.0,  999.0,  999.0,  999.0,  999.0,  999.0,  999.0,  999.0,  999.0,  999.0,  999.0,  999.0,  999.0,  999.0,  999.0,  999.0,  999.0,  999.0,  999.0,  999.0,  999.0,  999.0,  999.0,  999.0,  999.0,  999.0,  999.0,  999.0,  999.0,  999.0,  999.0,  999.0,  999.0,  999.0,  999.0,  999.0
2004/07/31 21:40,  999.0,  999.0,    6.7,    5.3,   11.0,   12.6,   14.8,   14.0,   14.5,   15.6,   16.3,   15.7,   16.4,   16.3,   15.9,   16.1,   16.2,   16.7,   17.3,   17.0,   17.7,   18.4,   18.8,   18.7,   18.9,   18.4,   18.3,   18.3,   18.1,   17.9,   17.2,   16.5,   16.7,  999.0,  999.0,  999.0,  999.0,  999.0,  999.0,   16.5,   16.5,  999.0,  999.0,  999.0,  999.0,  999.0,  999.0,  999.0,  999.0,  999.0,  999.0,  999.0,  999.0,  999.0,  999.0,  999.0,  999.0,  999.0,  999.0,  999.0,  999.0,  999.0,  999.0,  999.0,  999.0,  999.0,  999.0,  999.0,  999.0,  999.0
2004/07/31 21:50,  999.0,  999.0,    3.7,    5.3,    8.4,   12.1,   11.8,   13.5,   14.8,   15.3,   15.5,   16.0,   16.5,   16.1,   16.4,   16.6,   17.2,   17.3,   17.8,   18.4,   18.7,   19.0,   18.9,   18.8,   18.6,   18.4,   18.1,   17.8,   18.1,   18.1,   17.3,   17.9,   17.9,   16.8,  999.0,  999.0,  999.0,  999.0,  999.0,   17.2,   17.6,   18.4,   19.1,  999.0,  999.0,  999.0,  999.0,  999.0,  999.0,  999.0,  999.0,  999.0,  999.0,  999.0,  999.0,  999.0,  999.0,  999.0,  999.0,  999.0,  999.0,  999.0,  999.0,  999.0,  999.0,  999.0,  999.0,  999.0,  999.0,  999.0
2004/07/31 22:00,  999.0,  999.0,  999.0,    6.5,    8.0,   11.1,   13.4,   13.4,   13.7,   14.3,   15.7,   15.7,   15.6,   15.3,   16.0,   16.5,   15.8,   16.6,   17.1,   17.1,   17.2,   17.2,   18.0,   17.7,   17.2,   17.7,   16.8,   18.2,   17.4,   17.4,   16.9,   16.8,   17.7,   18.9,  999.0,  999.0,  999.0,  999.0,  999.0,   17.8,  999.0,  999.0,  999.0,  999.0,  999.0,  999.0,  999.0,  999.0,  999.0,  999.0,  999.0,  999.0,  999.0,  999.0,  999.0,  999.0,    8.1,    7.0,    7.4,    7.4,  999.0,  999.0,  999.0,  999.0,  999.0,  999.0,  999.0,  999.0,  999.0,  999.0
2004/07/31 22:10,  999.0,  999.0,  999.0,    6.3,    8.4,   11.1,   12.2,   13.4,   14.0,   14.5,   14.4,   15.1,   16.1,   16.4,   17.2,   17.6,   17.7,   17.7,   17.8,   17.2,   17.5,   17.7,   17.3,   17.7,   18.3,   18.3,   18.4,   18.8,   19.2,   16.8,   17.3,   16.7,   16.1,  999.0,  999.0,  999.0,  999.0,  999.0,  999.0,  999.0,  999.0,   16.0,  999.0,  999.0,  999.0,  999.0,  999.0,  999.0,  999.0,  999.0,  999.0,  999.0,  999.0,  999.0,  999.0,  999.0,  999.0,   12.0,    9.3,  999.0,  999.0,  999.0,  999.0,  999.0,  999.0,  999.0,  999.0,  999.0,  999.0,  999.0
2004/07/31 22:20,  999.0,  999.0,  999.0,    5.9,    6.9,   10.2,   11.7,   12.7,   13.3,   14.3,   14.7,   15.4,   15.2,   15.8,   16.4,   17.4,   17.7,   18.1,   18.1,   18.1,   18.0,   17.8,   17.6,   17.4,   17.5,   17.7,   18.0,   17.7,   17.4,   18.1,   16.1,   16.0,   16.0,  999.0,  999.0,  999.0,   16.7,   17.0,   15.9,  999.0,  999.0,   15.5,  999.0,  999.0,  999.0,  999.0,  999.0,  999.0,  999.0,  999.0,  999.0,  999.0,  999.0,  999.0,  999.0,  999.0,  999.0,  999.0,  999.0,  999.0,  999.0,  999.0,  999.0,  999.0,  999.0,  999.0,  999.0,  999.0,  999.0,  999.0
2004/07/31 22:30,  999.0,  999.0,    2.1,    4.7,    8.2,   10.3,   12.7,   13.6,   14.6,   14.6,   15.1,   15.4,   15.8,   16.4,   17.3,   17.4,   18.1,   17.4,   18.6,   17.8,   18.0,   18.5,   18.8,   18.3,   18.4,   18.4,   17.7,   17.5,   17.2,   17.3,   17.7,   17.2,   16.8,  999.0,  999.0,  999.0,   17.4,   17.5,  999.0,  999.0,  999.0,  999.0,  999.0,  999.0,  999.0,  999.0,  999.0,  999.0,  999.0,  999.0,  999.0,  999.0,  999.0,   19.0,  999.0,  999.0,  999.0,  999.0,  999.0,  999.0,  999.0,  999.0,  999.0,  999.0,  999.0,  999.0,  999.0,  999.0,  999.0,  999.0
2004/07/31 22:40,  999.0,  999.0,    3.1,    5.6,    8.2,   10.7,   12.9,   14.0,   14.5,   15.1,   15.3,   15.8,   16.2,   16.3,   16.0,   16.9,   17.0,   17.5,   18.5,   17.8,   18.2,   18.0,   18.2,   17.9,   17.9,   17.8,   17.7,   17.5,   17.9,   16.9,   17.5,   17.4,   17.4,   17.1,  999.0,  999.0,  999.0,   17.3,   17.5,   17.1,  999.0,   17.1,   18.4,  999.0,  999.0,  999.0,  999.0,  999.0,  999.0,  999.0,  999.0,  999.0,  999.0,   17.1,   16.1,  999.0,  999.0,  999.0,  999.0,  999.0,  999.0,  999.0,  999.0,  999.0,  999.0,  999.0,  999.0,  999.0,  999.0,  999.0
2004/07/31 22:50,  999.0,  999.0,    2.4,    6.7,    9.1,   10.7,   11.9,   13.2,   14.5,   15.0,   15.1,   14.9,   16.3,   16.5,   16.6,   17.0,   16.9,   17.0,   17.2,   17.1,   17.8,   18.1,   17.7,   18.0,   17.8,   17.3,   17.3,   17.6,   18.1,   17.5,   17.2,  999.0,   16.4,   16.1,   14.3,   15.0,  999.0,   16.2,  999.0,   15.2,   14.9,   15.6,  999.0,   16.5,   16.0,  999.0,  999.0,  999.0,  999.0,  999.0,  999.0,  999.0,  999.0,   16.4,   16.7,  999.0,  999.0,  999.0,  999.0,  999.0,  999.0,  999.0,  999.0,  999.0,  999.0,  999.0,  999.0,  999.0,  999.0,  999.0
2004/07/31 23:00,  999.0,  999.0,    3.2,    6.5,    6.6,   11.0,   12.8,   13.7,   14.9,   15.7,   16.1,   16.5,   17.0,   17.4,   17.4,   17.3,   18.1,   18.1,   18.4,   18.1,   18.5,   18.3,   18.9,   19.0,   19.0,   18.5,   18.6,   18.7,   18.8,   19.0,   18.6,   18.5,   18.8,   18.4,   16.9,   16.3,  999.0,  999.0,  999.0,   16.1,   16.3,   15.9,   15.6,   15.9,   16.6,   16.4,  999.0,  999.0,  999.0,  999.0,  999.0,  999.0,  999.0,  999.0,  999.0,  999.0,  999.0,  999.0,  999.0,  999.0,  999.0,  999.0,  999.0,  999.0,  999.0,  999.0,  999.0,  999.0,  999.0,  999.0
2004/07/31 23:10,  999.0,  999.0,    3.7,    5.4,    7.9,   10.8,   13.2,   14.2,   14.4,   15.1,   15.7,   16.4,   16.6,   16.8,   16.9,   17.2,   17.8,   17.8,   18.0,   18.0,   17.6,   17.8,   18.2,   18.5,   19.0,   19.2,   19.0,   19.0,   18.6,   18.6,   18.7,   18.3,   18.0,   17.6,   17.1,   15.7,  999.0,  999.0,   16.4,   15.7,   16.6,   16.5,   17.1,   15.3,  999.0,  999.0,  999.0,  999.0,  999.0,  999.0,  999.0,  999.0,  999.0,  999.0,  999.0,  999.0,  999.0,  999.0,  999.0,  999.0,  999.0,  999.0,  999.0,  999.0,  999.0,  999.0,  999.0,  999.0,  999.0,  999.0
2004/07/31 23:20,  999.0,  999.0,    3.5,    7.2,    8.6,   11.3,   12.5,   14.2,   15.1,   15.5,   15.9,   16.3,   16.5,   16.7,   17.7,   17.7,   17.8,   18.0,   17.7,   17.8,   17.5,   17.9,   18.5,   18.4,   18.8,   18.6,   18.7,   18.7,   18.6,   18.1,   18.1,   18.0,   17.5,   17.2,   17.0,   16.9,   16.4,   16.0,   14.9,   15.6,   16.4,   16.2,   16.1,   17.0,  999.0,  999.0,  999.0,  999.0,  999.0,  999.0,  999.0,   17.1,   16.1,  999.0,  999.0,  999.0,  999.0,  999.0,  999.0,  999.0,  999.0,  999.0,  999.0,  999.0,  999.0,  999.0,  999.0,  999.0,  999.0,  999.0
2004/07/31 23:30,  999.0,  999.0,    2.8,    7.7,    9.1,   11.4,   13.8,   14.5,   15.7,   16.1,   16.5,   16.8,   16.9,   17.1,   17.4,   17.5,   17.8,   17.4,   17.5,   17.9,   18.6,   18.9,   19.2,   19.0,   19.3,   18.8,   18.8,   18.5,   18.6,   18.4,   18.3,   18.7,   19.0,   18.0,   17.7,   17.7,   17.4,   17.2,   17.1,   15.7,   16.8,   18.5,   17.8,  999.0,  999.0,  999.0,  999.0,  999.0,  999.0,  999.0,  999.0,   17.3,   16.0,  999.0,  999.0,  999.0,  999.0,  999.0,  999.0,  999.0,  999.0,  999.0,  999.0,  999.0,  999.0,  999.0,  999.0,  999.0,  999.0,  999.0
2004/07/31 23:40,  999.0,  999.0,    4.1,    6.8,    7.8,   11.1,   14.4,   14.8,   15.0,   15.6,   16.2,   16.7,   17.1,   17.5,   17.7,   17.9,   17.7,   17.1,   17.7,   18.1,   18.1,   18.3,   18.5,   19.0,   19.1,   18.1,   17.3,   17.0,   17.8,   17.9,   18.3,   17.7,   17.6,   18.6,   18.2,   17.5,   17.8,   17.2,   17.4,   16.8,   16.1,   16.0,   17.5,  999.0,  999.0,  999.0,  999.0,  999.0,  999.0,  999.0,  999.0,  999.0,  999.0,  999.0,  999.0,  999.0,  999.0,  999.0,  999.0,  999.0,  999.0,  999.0,  999.0,  999.0,  999.0,  999.0,  999.0,  999.0,  999.0,  999.0
2004/07/31 23:50,  999.0,    1.2,    2.3,    5.3,    8.7,   10.8,   12.5,   14.4,   15.4,   15.9,   16.7,   17.1,   17.8,   18.1,   17.7,   17.5,   17.7,   17.9,   17.7,   17.8,   17.9,   19.0,   18.5,   18.4,   18.4,   18.0,   17.7,   16.1,   17.2,   17.5,   17.6,   17.7,   18.4,   18.7,   18.8,   17.7,   17.6,   17.3,   16.1,   16.2,   15.7,   16.4,   16.4,  999.0,   16.5,  999.0,  999.0,  999.0,  999.0,  999.0,  999.0,  999.0,  999.0,  999.0,  999.0,  999.0,  999.0,  999.0,  999.0,  999.0,  999.0,  999.0,  999.0,  999.0,  999.0,  999.0,  999.0,  999.0,  999.0,  999.0
